GFSNGP_925_spd_000.txt.gz
Wind_Speed
5 8 7 11 11 8 8 8 6 16 9 11 9 8 6 7 7 9 9 8 8 6 11 17 17 19 18 17 23 20 14 13 12 10 10 11 15 16 20 23 21 18 19 22
4 3 5 8 11 11 9 6 11 14 15 10 5 3 5 9 11 10 9 8 8 8 12 13 17 17 19 21 19 13 12 14 14 14 13 11 17 16 18 22 23 23 19 17
5 4 8 8 5 4 3 6 6 6 11 2 3 6 9 11 9 7 5 4 6 8 14 19 18 17 18 14 11 8 11 15 20 20 19 18 17 16 16 16 15 15 17 17
3 4 2 8 2 7 7 8 10 7 7 5 6 7 9 7 6 4 7 7 9 14 17 18 19 17 8 5 7 8 7 8 12 15 16 14 15 16 17 14 16 16 16 13
3 3 6 9 8 1 4 7 4 3 4 4 8 7 5 7 7 5 7 17 23 17 15 21 21 5 2 2 2 3 10 13 14 12 13 15 16 15 14 15 16 14 11 14
1 3 5 7 3 1 2 6 1 0 12 19 8 10 9 6 5 6 15 20 19 17 20 23 14 7 10 9 8 8 12 12 10 12 14 14 14 15 16 14 10 14 18 19
6 5 8 9 6 1 3 3 3 4 11 8 5 3 6 7 8 14 17 19 16 18 19 16 11 11 12 10 9 10 11 11 12 13 12 12 14 14 14 12 16 19 20 20
2 3 8 3 1 2 7 1 7 10 2 1 5 6 5 9 11 17 18 20 18 17 16 13 13 10 10 13 16 12 10 11 11 12 13 12 11 13 15 13 19 21 22 24
8 7 5 4 6 8 4 6 5 0 6 7 3 5 10 10 11 17 18 19 17 14 13 13 9 11 12 16 14 11 9 10 11 12 11 10 11 15 15 16 19 21 18 20
3 6 6 11 12 6 6 5 10 8 4 1 5 10 12 11 10 14 18 18 16 12 13 12 11 12 16 15 10 10 10 10 11 12 12 11 13 14 14 17 19 17 20 19
6 13 9 8 5 5 5 6 3 3 6 7 7 10 8 8 10 17 20 21 17 12 14 13 15 18 18 13 12 13 12 11 10 12 14 15 14 13 14 13 14 17 20 21
11 6 5 7 2 2 5 5 1 8 8 9 7 8 10 12 17 19 21 25 16 13 15 19 18 17 16 11 12 13 14 12 12 14 15 12 12 16 12 14 15 16 16 17
4 6 4 4 5 9 5 4 9 8 12 8 13 11 16 15 17 23 22 18 14 14 16 13 13 14 10 9 10 10 11 10 11 11 11 13 15 16 17 18 15 17 17 17
4 3 3 2 4 2 5 9 13 14 17 15 14 23 19 17 22 20 19 21 16 15 12 9 10 9 10 11 11 9 8 8 10 9 11 14 14 13 14 15 17 22 20 18
6 6 6 8 4 4 9 10 7 7 10 13 18 16 18 16 17 21 26 18 18 14 8 8 7 7 9 10 10 9 8 11 7 7 11 13 11 13 13 14 15 18 20 22
6 6 6 7 4 6 6 8 6 8 9 15 16 17 17 18 22 24 24 19 12 11 6 5 6 8 9 10 9 7 8 8 6 8 11 11 12 13 14 14 15 16 17 18
5 4 1 4 6 6 7 8 10 12 13 15 21 21 17 16 22 20 19 14 11 6 2 5 6 8 8 9 10 9 10 7 5 9 9 10 13 12 14 14 14 14 14 15
3 4 7 7 7 8 7 11 18 21 17 20 23 24 16 15 17 20 15 10 8 4 3 2 7 9 10 10 10 10 8 6 7 10 9 10 12 13 14 13 12 13 14 14
7 8 13 14 17 16 16 18 22 26 29 21 16 16 17 19 23 18 12 9 7 4 2 5 7 9 10 12 12 10 7 5 7 8 10 10 11 12 12 12 12 11 12 12
13 16 16 18 21 22 20 26 26 26 28 22 20 18 19 20 19 9 9 9 9 6 4 6 8 9 10 10 10 8 7 6 8 9 10 10 10 11 11 11 11 11 11 10
14 16 19 20 22 27 26 24 23 24 29 24 17 19 19 19 15 9 7 8 11 6 7 8 9 9 10 11 12 11 11 7 9 10 12 11 10 11 11 10 10 10 11 10
16 16 20 22 21 25 29 27 27 27 28 23 19 18 18 19 13 11 10 12 10 7 9 10 10 10 11 11 14 9 8 9 9 10 12 12 11 11 10 11 10 9 10 9
20 20 20 21 22 23 30 29 26 25 27 26 20 19 17 19 14 12 6 7 8 9 8 9 8 10 10 8 11 9 10 10 10 12 15 14 11 12 10 10 10 9 10 9
21 23 23 24 22 21 16 24 26 25 24 25 20 21 20 16 16 15 12 10 6 7 8 7 8 10 10 9 9 10 10 11 13 12 14 11 11 10 11 10 10 9 9 8
22 22 22 18 16 14 20 24 24 21 22 24 19 21 16 16 16 9 7 8 8 8 7 7 8 9 11 11 12 14 14 12 12 12 13 13 11 10 9 10 9 9 8 8
20 18 20 22 21 22 25 25 18 19 18 17 20 21 14 14 13 11 8 6 8 6 8 10 9 10 10 11 11 12 12 12 14 13 12 13 13 13 12 12 11 10 9 8
19 19 20 19 19 19 19 18 20 20 19 18 17 18 12 13 14 15 12 9 8 8 9 10 10 10 10 10 10 11 13 13 12 12 13 12 12 13 13 13 13 11 10 9

GFSNGP_925_spd_003.txt.gz
Wind_Speed
4 8 6 10 12 11 12 12 7 13 14 19 14 12 8 6 11 13 14 11 10 9 11 11 13 13 12 12 13 11 9 9 9 7 8 12 12 14 15 15 16 15 14 14
3 5 5 9 12 12 12 12 12 17 19 14 8 3 5 11 13 13 11 8 7 7 9 11 12 12 14 13 8 7 3 5 7 8 10 13 14 15 15 15 16 16 16 17
3 5 9 6 3 4 3 5 4 5 7 6 6 6 14 15 13 8 5 5 8 8 11 12 14 14 13 10 6 4 3 7 10 11 12 12 13 16 17 15 15 15 15 14
2 5 1 2 2 6 7 12 7 7 5 5 10 15 12 8 6 6 6 9 11 14 14 15 12 16 13 4 5 6 6 9 11 11 11 13 15 14 14 14 15 15 13 11
2 3 7 10 6 3 5 6 2 2 7 13 16 13 4 4 5 3 5 17 16 17 17 12 15 13 6 7 7 7 9 11 11 10 11 12 12 14 14 14 14 12 13 15
2 3 5 5 1 2 3 6 3 8 17 21 13 11 8 5 8 13 18 17 19 22 15 13 12 8 10 12 9 11 10 11 11 11 11 11 12 14 12 13 12 13 16 15
5 5 8 8 5 2 1 3 4 10 14 11 7 2 4 6 13 17 20 22 23 19 14 13 11 9 8 7 6 11 14 12 12 11 11 12 13 12 13 14 12 16 17 17
2 4 7 2 2 2 3 2 6 8 9 6 3 6 7 10 12 18 20 24 23 16 15 13 11 10 6 9 11 11 13 12 10 10 12 13 13 13 13 14 14 16 17 18
7 6 3 1 1 3 1 2 2 3 2 2 2 7 10 11 14 18 20 22 21 17 16 11 9 8 9 13 12 13 10 10 9 11 13 13 13 14 14 13 14 16 18 20
1 5 8 4 2 3 2 4 3 3 2 5 8 11 12 12 13 17 22 22 22 19 17 13 9 10 12 14 14 11 10 9 9 10 12 14 12 12 12 13 14 16 19 20
5 14 6 2 1 5 3 4 4 5 6 8 9 12 12 11 15 18 21 23 22 20 18 14 12 15 14 13 11 9 10 9 9 9 11 12 10 9 10 9 10 15 17 18
6 3 2 3 4 3 6 3 1 4 8 13 13 11 13 16 18 17 20 23 22 22 17 16 15 12 11 10 8 9 10 8 8 9 9 8 10 11 9 10 11 12 12 14
3 3 2 5 6 6 3 2 4 7 11 10 15 10 14 17 17 20 20 21 22 21 17 15 12 9 9 9 9 8 8 8 8 8 6 8 10 10 11 12 12 13 14 14
2 8 6 4 2 1 5 7 9 11 13 13 14 15 14 15 18 17 18 21 21 19 16 11 8 8 7 9 9 9 8 8 9 6 6 8 9 9 8 10 12 13 14 15
7 8 7 8 4 4 7 9 9 10 12 14 14 15 17 17 18 20 20 21 20 18 10 6 7 6 6 7 9 10 9 7 8 4 7 9 9 8 8 9 11 12 13 14
8 8 4 2 6 8 8 9 9 11 13 15 16 20 18 16 19 20 20 18 16 13 10 6 5 7 6 7 9 9 8 8 6 6 8 7 8 9 9 10 11 11 13 14
4 2 3 5 7 8 9 12 12 15 18 19 20 23 21 21 18 16 19 21 15 12 8 6 4 6 8 7 9 10 9 7 5 6 7 7 8 8 9 9 10 10 10 11
2 1 4 6 8 9 9 13 16 18 17 21 28 23 18 14 14 18 20 18 12 9 8 4 4 6 8 10 11 11 8 6 7 7 8 7 7 8 9 8 8 8 10 10
2 4 7 8 10 12 13 15 19 24 27 27 25 20 20 18 19 18 21 14 12 8 6 1 4 6 8 9 10 9 6 5 6 7 8 8 7 8 9 9 8 8 8 9
8 11 12 15 18 17 18 23 25 24 26 24 26 21 18 20 16 17 17 15 14 9 5 2 5 7 7 8 9 9 9 9 6 6 9 10 8 7 9 9 9 7 7 7
11 13 14 17 19 22 22 22 22 23 27 25 23 21 21 21 19 18 12 12 11 6 10 5 7 8 7 8 9 12 9 7 5 7 8 9 10 7 8 8 9 8 7 6
13 13 18 21 20 22 24 24 23 24 24 26 26 22 21 20 18 19 18 17 12 7 9 6 6 5 6 7 7 9 5 6 6 7 8 11 10 8 8 9 9 8 7 7
16 18 19 20 19 20 24 24 23 22 25 26 23 21 20 18 18 12 9 9 11 11 10 6 4 4 5 6 5 7 7 6 7 8 9 11 10 9 9 9 9 9 8 8
19 20 20 21 19 20 16 22 25 24 24 26 26 25 21 18 20 18 17 14 9 10 10 7 6 4 6 7 7 8 9 8 7 8 10 11 11 10 10 10 9 9 9 8
20 19 19 18 15 16 18 22 22 21 22 23 22 24 25 24 16 11 9 9 11 12 11 9 7 7 7 8 7 8 9 10 10 11 12 11 11 11 11 11 10 10 10 9
16 13 13 15 15 17 19 17 17 20 19 22 23 22 23 19 10 10 9 8 10 11 10 10 9 8 8 8 8 8 9 10 11 11 11 11 11 12 12 12 13 12 11 10
18 15 16 16 13 15 17 18 17 19 20 21 24 21 19 14 8 9 12 14 13 11 9 8 9 10 9 8 7 7 8 10 10 10 9 9 11 12 13 13 13 13 12 12

GFSNGP_925_spd_006.txt.gz
Wind_Speed
8 11 13 12 14 12 15 15 11 15 15 15 14 13 10 5 12 16 14 11 10 10 12 14 13 11 10 11 13 11 10 13 9 8 9 12 14 14 15 16 17 17 17 17
4 8 10 12 15 15 13 13 13 15 16 6 8 7 6 13 15 14 10 9 10 12 16 12 12 14 11 15 13 8 11 7 7 10 12 12 13 15 17 17 16 16 17 17
4 9 13 6 4 4 3 4 8 10 8 7 7 10 14 16 14 8 9 9 11 13 16 15 18 13 16 17 10 9 10 7 9 11 12 13 15 16 16 17 17 18 17 16
3 5 3 3 5 9 13 13 8 9 3 6 10 16 18 6 6 6 8 13 13 15 19 21 18 17 17 14 11 11 11 11 10 11 11 14 15 15 16 17 18 18 17 17
2 4 15 12 3 2 2 11 4 3 8 14 18 16 6 4 3 10 11 15 19 21 24 24 19 18 16 15 14 13 14 12 12 10 12 13 14 15 17 18 18 18 17 19
2 4 4 3 4 4 4 8 4 10 16 17 18 12 5 14 10 14 17 17 20 23 24 22 17 17 16 16 16 15 12 12 11 11 11 13 14 16 17 18 18 17 18 19
6 6 8 6 5 1 3 3 12 7 6 8 6 4 10 9 12 14 17 18 21 22 23 22 21 19 17 16 13 11 10 12 13 11 11 13 15 17 19 20 18 14 16 18
3 4 6 2 2 2 5 6 2 4 4 7 7 7 9 11 13 17 18 20 23 24 25 25 23 19 18 14 12 11 13 14 12 10 11 13 16 19 20 20 17 15 17 18
7 6 5 8 7 4 1 4 6 1 4 6 6 9 11 12 14 17 20 22 24 24 26 26 24 20 18 16 13 13 14 13 11 10 11 14 17 19 19 16 14 16 19 20
6 11 12 10 5 3 2 1 2 4 2 4 9 10 13 14 17 19 22 23 23 24 25 26 26 19 15 15 14 15 15 13 11 11 12 15 16 15 15 14 12 16 18 19
12 15 12 4 3 3 3 4 5 4 6 7 9 13 15 15 18 20 21 21 22 23 25 27 25 17 13 13 12 14 13 11 10 10 11 13 13 11 11 10 9 13 14 17
4 3 7 1 3 5 5 5 2 5 7 10 14 14 18 18 21 21 22 22 23 25 26 26 21 17 13 8 11 10 10 8 8 9 9 10 11 13 8 8 9 8 9 11
7 7 2 0 4 4 2 3 5 8 12 13 18 17 19 21 22 23 23 24 23 23 24 24 20 12 8 9 8 7 6 6 7 7 8 7 10 11 12 10 9 8 9 11
4 7 4 6 2 2 3 6 10 15 18 18 18 18 21 23 25 24 24 24 22 22 23 16 10 9 7 6 7 7 7 7 6 6 5 7 9 10 10 12 14 13 10 11
5 2 5 7 4 4 7 11 12 13 18 19 20 21 23 24 24 24 23 20 20 20 17 12 9 8 6 4 6 8 8 6 6 4 5 7 7 9 10 11 12 12 13 12
8 7 5 0 4 7 10 12 13 14 18 21 22 22 23 23 23 21 18 16 16 17 13 10 7 5 4 6 7 7 7 5 3 4 6 7 8 9 10 11 11 11 11 12
7 4 2 4 7 9 11 13 14 16 20 21 21 21 23 22 18 17 18 16 15 14 12 8 6 5 5 5 7 7 6 5 4 5 6 7 6 8 9 9 9 10 10 8
4 2 3 6 8 9 11 14 15 16 18 21 24 20 18 16 19 21 20 17 16 12 9 7 5 4 5 5 6 7 5 4 4 4 6 6 7 7 8 8 8 8 8 7
1 4 7 9 10 11 13 15 16 19 22 20 19 20 20 21 22 21 18 15 13 11 7 6 4 5 5 5 6 6 4 4 5 5 5 7 7 7 7 8 8 7 7 7
7 9 11 12 12 13 15 19 19 18 19 19 20 19 19 20 22 20 18 17 17 13 7 8 4 6 7 7 6 7 7 7 6 5 5 8 7 8 7 6 6 7 7 6
10 12 11 14 15 19 19 20 18 18 21 20 18 19 20 23 22 21 16 14 11 7 10 13 9 7 6 6 6 6 7 6 5 6 6 7 8 8 8 7 7 7 7 6
11 12 14 16 16 17 19 18 15 21 20 20 19 19 19 19 19 18 18 19 12 8 7 11 9 8 6 6 5 4 5 6 6 6 7 7 8 8 8 8 7 7 7 6
14 13 14 16 15 16 20 22 21 19 18 16 18 20 20 21 20 18 13 12 9 11 10 11 10 8 7 7 7 5 5 5 5 6 6 7 7 7 8 8 7 7 7 6
14 13 14 15 15 13 15 18 16 15 15 19 19 22 24 24 23 17 17 13 11 10 12 13 11 11 8 7 7 8 8 8 9 9 9 8 7 7 7 7 7 7 7 7
15 15 13 13 11 13 15 16 17 16 17 19 19 21 21 23 20 23 14 11 10 13 13 14 13 12 11 9 7 7 7 7 7 8 9 10 9 8 8 8 8 8 8 8
14 14 14 12 14 14 14 15 15 18 18 18 21 21 23 25 21 17 12 12 9 10 12 12 14 14 12 9 8 8 7 7 7 7 7 8 8 9 9 9 9 9 9 9
15 13 11 11 11 13 15 16 18 19 16 17 21 22 22 24 21 13 12 14 15 14 13 12 12 13 12 10 9 8 7 6 6 6 6 6 7 8 9 10 10 10 10 9

GFSNGP_925_spd_009.txt.gz
Wind_Speed
10 12 11 12 13 13 15 14 13 15 16 15 12 11 11 8 11 13 14 13 12 15 17 15 14 13 15 14 17 18 18 18 17 14 15 15 15 16 17 18 19 19 19 20
4 7 10 14 16 18 16 10 13 13 15 9 7 7 10 15 16 15 13 12 15 16 15 17 15 18 19 17 17 19 18 18 16 15 14 15 15 16 17 18 18 19 20 21
4 11 13 6 3 1 4 7 7 10 10 7 10 13 13 12 12 11 10 13 16 14 15 18 20 22 20 18 19 18 18 18 18 12 15 15 16 17 17 18 19 20 21 20
3 7 3 5 9 13 10 9 9 8 7 8 13 13 11 5 10 11 12 14 12 17 19 22 25 26 25 22 26 24 20 21 16 14 16 16 16 17 17 19 20 21 20 19
2 5 14 10 5 6 8 13 10 6 9 12 16 14 1 3 11 10 11 15 17 19 21 25 27 28 25 25 26 25 25 17 15 16 17 16 17 17 19 20 20 20 18 19
3 3 4 2 7 5 6 9 7 6 11 11 13 10 10 14 14 13 16 18 20 21 24 25 27 28 30 29 27 25 21 13 14 16 16 15 16 18 19 21 21 18 16 19
6 5 8 8 3 5 4 3 7 9 6 11 8 9 11 13 13 16 17 20 21 23 25 26 28 29 30 31 28 22 19 11 14 16 14 14 15 19 21 22 20 12 14 18
3 3 6 4 4 3 8 11 6 4 5 6 9 9 10 11 13 17 20 23 24 25 25 27 28 29 31 34 31 20 18 12 13 16 12 14 17 20 19 22 16 15 17 19
8 6 9 6 8 10 4 5 6 2 5 10 9 10 11 12 15 20 23 25 26 24 26 27 28 30 31 29 26 17 16 15 15 13 14 16 16 19 19 16 15 15 19 19
8 7 13 8 9 7 6 2 4 5 12 6 10 10 13 14 17 21 24 26 24 26 26 26 28 29 28 19 18 19 14 15 13 13 11 15 15 17 14 14 13 16 19 19
14 17 14 11 6 3 2 3 4 8 6 8 10 13 16 16 20 23 25 24 26 25 25 26 28 27 24 18 14 14 14 14 13 12 12 14 15 11 12 8 6 12 14 15
10 7 5 6 5 5 5 5 3 5 8 11 16 16 22 20 23 24 25 28 27 28 28 27 27 24 20 11 13 12 14 12 11 10 11 10 11 12 9 9 11 12 8 9
10 0 2 3 2 6 3 2 4 7 12 14 20 21 22 21 24 25 27 26 26 27 26 24 22 15 11 11 9 10 11 11 11 10 8 8 9 10 12 9 11 9 7 8
2 6 3 6 4 3 2 4 6 11 16 18 21 22 23 24 26 26 25 25 25 24 22 22 17 11 10 9 9 9 10 11 7 9 6 7 9 8 9 11 13 12 9 11
6 4 4 6 4 4 3 7 10 12 16 18 19 21 21 23 24 26 27 25 20 20 21 18 13 12 9 7 8 9 8 8 8 7 6 7 7 8 9 10 12 12 13 12
7 8 8 3 2 4 7 10 11 13 15 19 19 19 21 25 26 26 24 20 16 18 19 17 14 10 8 9 10 11 7 6 7 6 7 7 7 7 8 9 11 12 12 12
9 7 3 3 4 7 9 11 13 15 16 18 19 21 23 21 21 21 23 23 22 20 20 15 15 10 8 9 9 10 8 7 7 8 7 7 7 8 8 8 10 11 11 6
4 5 1 3 6 8 9 11 13 14 16 18 23 20 18 17 19 22 24 25 20 19 18 15 12 9 8 9 8 9 8 7 7 7 7 7 7 9 8 9 9 10 10 8
3 1 4 7 9 10 11 13 15 15 20 19 18 18 20 21 20 23 24 21 19 18 16 13 12 9 8 8 8 9 8 8 8 9 7 8 9 8 9 9 9 10 9 9
2 5 8 11 11 10 13 15 18 16 16 17 20 18 20 21 20 22 22 22 21 20 16 10 11 9 8 9 10 9 8 9 10 10 8 8 9 9 9 9 9 9 9 8
6 10 10 11 13 15 17 20 19 18 19 18 18 18 20 23 20 20 21 18 20 18 14 15 15 11 9 8 8 10 8 9 9 9 10 9 9 9 9 9 10 9 9 8
10 12 13 16 15 15 15 16 14 19 22 21 17 16 19 21 19 21 20 22 22 17 12 12 14 14 11 8 9 8 8 9 10 9 10 10 9 9 9 9 9 9 8 8
15 15 15 14 16 16 16 19 21 18 19 18 17 19 19 20 20 19 18 21 19 19 14 14 15 15 13 11 10 11 10 9 10 10 10 9 9 9 9 10 9 9 9 9
15 15 14 14 15 14 14 16 12 14 17 19 21 19 19 19 22 18 25 21 21 15 13 14 17 17 14 13 10 12 14 14 14 14 13 14 13 11 10 11 10 10 10 10
14 15 15 15 13 14 15 16 15 15 16 18 19 17 17 19 19 27 26 25 17 15 16 16 19 17 17 16 14 14 13 14 14 14 12 13 13 13 12 11 12 11 11 11
16 16 17 18 18 17 15 14 16 17 18 19 19 18 20 22 22 25 23 21 16 15 14 15 17 19 19 18 17 16 15 14 13 14 13 12 12 12 13 13 13 13 13 13
17 17 17 16 16 14 14 14 14 17 17 19 22 21 21 23 23 24 22 21 18 18 18 19 19 20 19 18 19 16 15 14 14 13 12 12 11 11 11 11 12 13 14 14

GFSNGP_925_spd_012.txt.gz
Wind_Speed
7 9 8 10 12 12 13 12 9 10 15 10 10 7 13 12 12 12 10 11 12 11 15 16 17 18 18 19 18 18 17 25 18 15 11 4 9 12 16 17 17 16 18 20
3 5 11 14 15 14 14 14 11 11 14 8 9 12 12 10 11 11 12 13 13 15 17 15 17 20 21 23 20 12 17 23 21 20 9 9 7 10 15 17 15 18 18 19
2 11 10 2 3 7 8 8 9 6 9 11 10 11 12 8 10 11 11 13 14 13 15 16 18 23 23 24 22 21 25 15 12 11 9 13 12 8 14 15 18 18 19 16
2 5 3 4 13 11 9 7 8 9 8 7 10 13 11 10 9 10 11 11 13 15 16 16 21 22 23 26 29 31 28 20 14 11 12 13 10 8 10 15 18 20 16 13
1 3 9 9 4 6 5 11 10 7 10 11 13 11 4 8 9 8 9 14 15 19 18 22 20 23 27 28 30 29 36 17 19 12 9 11 11 9 11 17 20 13 14 14
2 2 3 2 7 5 8 7 9 8 9 10 12 5 6 14 13 13 17 18 20 21 22 22 22 26 25 26 27 28 26 21 16 16 14 9 7 11 14 18 14 14 12 13
4 4 6 9 4 4 3 2 7 5 8 9 7 6 9 9 11 17 18 21 23 21 21 20 24 24 23 24 25 24 23 20 16 11 11 6 8 12 16 12 13 11 13 20
3 3 6 1 1 2 6 9 5 6 5 3 3 9 9 10 12 17 19 22 23 23 20 23 23 23 21 22 24 22 20 20 21 16 12 11 13 14 13 14 11 13 17 19
9 5 7 3 4 2 1 3 3 3 4 5 8 8 9 10 12 17 21 22 24 21 23 25 22 21 20 22 20 19 18 18 17 15 14 13 13 15 14 10 11 13 14 17
3 8 10 7 2 6 6 4 3 2 5 8 6 8 10 10 13 16 19 22 21 25 23 22 24 22 21 21 20 17 18 18 16 16 15 13 13 15 12 12 9 11 14 13
8 12 10 6 10 9 5 1 3 8 4 5 7 9 11 11 15 17 20 19 24 22 21 23 24 22 21 19 14 15 16 16 17 14 15 14 13 9 7 8 9 11 10 11
8 6 1 5 8 3 2 2 5 3 5 8 11 10 16 14 19 19 21 23 22 23 23 23 23 22 18 11 10 12 14 15 15 15 14 11 10 12 14 15 12 14 12 10
6 5 7 8 5 3 4 3 2 5 8 8 13 16 17 17 18 22 22 23 23 23 21 22 22 19 14 9 9 9 10 13 13 13 11 9 10 11 12 14 14 14 11 10
6 9 6 3 4 4 4 2 4 6 10 12 15 15 17 17 19 20 21 23 25 24 18 20 21 18 10 8 7 10 11 9 8 10 8 10 12 13 12 12 13 13 10 10
6 4 7 9 7 9 6 1 5 7 11 12 14 15 15 16 19 21 22 23 21 22 22 20 19 19 16 10 10 13 16 9 6 8 10 10 11 11 11 11 12 14 12 8
8 6 9 10 5 2 2 4 6 8 11 13 12 12 13 18 19 21 19 19 21 22 23 21 21 20 14 11 12 13 14 4 4 8 9 9 8 10 11 10 11 12 12 7
8 8 7 4 1 2 4 6 8 9 10 11 11 13 17 18 19 17 20 20 23 25 26 23 22 15 13 12 12 14 11 6 8 11 11 9 10 10 10 10 11 12 12 10
8 6 8 3 2 3 4 6 5 7 9 12 19 18 18 15 16 21 22 24 23 23 24 22 19 15 13 11 12 10 9 10 11 10 10 10 9 11 14 12 11 10 11 11
10 7 4 2 5 5 6 7 8 10 17 18 17 18 19 20 19 19 21 21 21 22 21 19 18 15 14 11 11 9 10 11 11 12 13 11 10 12 12 12 12 10 12 11
6 5 6 5 7 9 11 13 15 15 18 15 17 19 18 16 17 22 21 21 25 27 21 20 15 15 13 10 11 10 10 11 12 14 14 12 11 12 10 13 14 13 11 11
4 3 5 8 11 13 15 17 17 18 19 17 18 16 17 19 20 22 19 19 24 22 22 20 17 17 13 14 14 12 12 13 12 13 13 12 12 12 11 12 13 13 11 11
3 7 10 12 13 15 16 16 17 17 21 21 17 16 19 19 21 19 22 25 24 18 18 20 17 16 16 13 10 12 11 11 13 13 13 13 12 11 10 12 13 13 12 11
7 10 13 14 15 16 15 17 23 21 18 14 14 17 18 20 20 17 19 20 28 22 23 19 15 15 16 18 18 15 15 15 14 13 14 14 15 14 13 14 14 14 14 14
12 14 14 15 16 17 15 19 18 18 16 17 16 17 20 19 17 17 21 26 27 26 23 17 15 16 19 19 19 17 15 15 17 17 17 17 17 17 17 16 14 14 14 14
14 16 17 17 15 16 19 20 14 11 13 10 17 23 21 19 19 25 26 27 27 24 22 18 17 19 21 23 22 20 18 18 17 17 17 16 16 16 15 15 16 16 16 15
14 13 15 16 18 19 19 17 14 15 11 13 16 20 22 23 24 24 25 25 25 23 22 20 20 19 23 25 25 23 21 21 18 18 18 18 19 19 19 19 18 18 17 17
14 15 15 15 17 18 19 20 18 11 9 15 18 19 19 23 23 24 23 24 23 23 22 23 22 23 25 26 26 26 23 23 20 19 18 18 18 18 19 18 17 17 16 16

GFSNGP_925_spd_015.txt.gz
Wind_Speed
4 5 4 4 6 7 4 5 5 7 6 5 10 7 6 6 7 9 9 8 6 6 12 16 13 16 18 23 23 17 24 23 26 21 9 11 12 8 19 14 10 5 12 14
2 7 7 4 7 7 7 6 4 4 4 10 7 7 7 8 10 9 6 6 7 10 14 14 13 16 21 20 24 25 26 30 19 7 9 9 10 12 22 8 5 12 14 14
2 5 5 4 3 5 3 3 2 2 1 7 9 10 8 8 8 5 5 6 6 10 17 15 13 16 20 20 23 25 29 24 18 18 15 15 14 15 9 5 10 14 12 4
2 4 2 4 3 4 5 4 6 10 10 9 7 7 8 6 4 4 4 5 9 16 14 15 13 17 19 19 22 24 18 22 19 18 14 13 6 18 3 10 15 8 8 11
3 1 6 5 2 3 4 3 7 8 6 6 5 6 4 5 3 1 5 10 10 13 12 13 16 19 19 20 21 17 16 16 18 16 13 12 17 4 7 14 6 7 10 11
2 4 6 5 4 5 2 3 3 7 5 4 3 2 3 4 4 5 10 11 14 15 17 16 19 22 21 21 16 13 14 15 17 17 14 15 11 9 10 7 2 6 9 15
4 3 7 8 4 3 3 6 5 6 5 3 2 4 4 7 2 9 9 13 15 18 13 18 25 28 22 13 12 13 14 15 15 15 14 13 12 11 8 4 6 7 13 12
3 3 7 6 4 7 5 3 6 6 5 5 2 5 6 3 6 9 10 13 15 14 19 23 22 18 15 15 14 15 15 14 17 18 15 14 12 10 6 6 7 12 13 17
9 6 7 6 7 5 5 5 4 4 4 3 4 4 1 4 5 8 9 13 10 17 20 20 17 15 12 11 15 15 15 17 17 17 17 14 12 9 7 8 11 11 15 15
4 6 6 5 5 5 6 7 7 6 5 4 4 2 4 3 6 11 14 14 18 19 16 16 17 14 13 15 13 13 13 14 16 14 15 12 11 8 9 12 12 13 14 14
3 3 4 5 7 8 8 7 6 4 4 3 3 3 3 5 8 11 14 17 18 19 20 17 16 18 19 19 16 10 13 13 13 15 16 13 7 7 11 12 12 14 13 11
5 4 4 5 6 6 7 8 6 3 5 4 7 6 9 6 10 15 15 19 20 21 22 16 17 22 23 15 10 10 10 12 12 13 11 9 8 9 12 14 13 14 12 10
3 3 7 10 8 8 6 7 8 7 2 5 10 10 10 8 12 14 18 20 19 20 22 20 19 18 13 11 10 8 9 11 10 7 6 7 10 14 16 14 12 14 12 9
12 10 5 5 4 6 10 10 8 6 12 12 10 10 8 9 11 16 18 19 22 18 23 23 23 18 18 22 12 10 13 12 12 10 9 8 10 11 12 13 13 15 10 7
7 5 6 9 7 5 6 9 7 6 9 10 9 6 8 8 13 17 19 22 18 24 22 21 21 20 19 19 12 14 14 17 12 6 5 7 9 9 11 12 11 12 12 5
9 9 8 7 7 5 8 8 7 5 6 4 4 8 7 13 16 19 20 16 21 23 26 26 23 23 19 15 12 12 14 12 6 5 4 9 10 8 12 11 11 12 12 10
11 8 8 6 8 7 7 8 6 2 4 5 10 10 16 15 17 20 21 21 22 22 22 25 26 20 17 16 14 13 13 4 3 7 9 9 9 10 9 13 14 13 12 11
10 14 14 10 7 6 5 3 2 4 6 8 13 16 15 15 17 22 21 22 22 22 22 22 20 19 19 15 14 14 13 11 10 9 11 12 12 10 12 13 13 14 11 12
19 15 16 16 12 7 3 6 8 8 11 14 15 17 15 17 17 17 19 20 20 23 23 23 25 20 21 18 15 15 15 12 11 10 12 13 12 13 11 13 12 13 14 14
16 16 12 7 5 5 8 10 11 12 14 15 14 15 17 15 15 17 20 20 20 24 26 25 23 22 24 19 15 15 14 12 13 11 13 14 14 14 14 11 13 13 14 15
8 6 3 4 8 9 10 12 12 13 16 14 13 17 16 19 18 20 19 16 22 25 22 25 23 25 24 20 17 17 18 17 15 15 14 15 14 14 14 15 10 13 13 13
4 1 5 8 9 11 12 13 13 16 16 18 17 13 15 19 21 24 19 21 24 23 29 28 25 27 20 19 16 18 20 20 18 14 14 15 15 14 13 11 13 14 14 12
4 7 8 9 11 14 15 16 20 21 20 17 17 16 16 19 21 20 17 17 20 25 29 28 26 24 18 19 20 20 19 18 19 20 18 16 16 16 17 17 16 14 14 14
7 8 11 13 15 16 16 21 21 22 22 21 21 18 15 19 22 19 19 24 26 25 26 28 25 22 19 21 23 25 24 25 23 19 20 21 20 19 19 18 20 19 15 14
12 13 14 15 15 17 20 20 21 22 20 17 15 8 12 17 18 24 25 26 26 26 26 26 25 23 21 21 23 27 29 28 25 21 20 20 20 20 18 18 18 16 17 15
11 14 16 17 18 21 24 26 24 26 26 15 8 13 16 16 20 22 22 22 23 24 25 24 24 24 23 22 23 26 29 30 28 26 25 23 21 20 20 20 19 18 18 17
13 14 15 18 22 23 21 19 16 16 13 13 17 16 16 20 22 21 21 21 22 22 24 25 25 25 26 26 25 27 29 30 30 28 26 23 20 19 18 18 17 17 17 16

GFSNGP_925_spd_018.txt.gz
Wind_Speed
3 4 2 0 2 2 5 4 5 6 7 3 7 8 7 9 7 6 5 5 5 4 7 10 7 8 10 12 14 13 15 15 14 14 17 16 18 20 19 17 18 16 9 11
1 4 6 3 4 4 4 3 3 4 4 3 4 6 6 6 6 5 4 3 3 5 8 11 7 8 10 11 12 12 11 10 13 17 18 17 17 19 18 18 5 9 11 11
3 4 5 5 5 3 1 3 3 5 6 6 5 6 5 5 5 4 1 3 5 6 7 5 7 8 9 10 11 9 6 6 12 19 19 16 15 14 14 9 5 12 8 3
2 3 1 4 3 4 7 3 8 9 6 6 6 5 5 4 5 4 5 5 5 6 7 5 7 10 12 12 9 2 5 12 16 18 17 17 15 14 4 4 12 8 1 3
3 3 5 2 5 5 5 5 7 9 7 6 7 5 2 5 4 4 3 3 5 6 4 4 8 14 16 14 5 6 11 12 14 15 16 15 13 11 10 13 4 1 4 8
2 4 6 5 3 6 5 4 8 7 7 6 7 3 4 5 5 2 4 6 6 4 3 9 16 15 10 8 7 9 10 11 12 13 13 14 11 10 11 3 4 3 5 7
2 2 8 7 4 4 5 7 7 8 7 7 5 4 3 2 2 1 6 6 5 5 9 14 13 7 7 5 5 7 12 11 11 13 14 14 12 10 2 6 5 4 6 8
3 2 8 7 5 7 6 4 7 6 7 6 6 5 4 3 1 7 6 7 7 11 13 13 10 8 3 5 8 11 12 10 10 12 12 9 5 5 8 4 3 4 8 8
10 7 5 7 7 5 7 6 7 8 6 7 5 4 4 3 6 7 7 7 9 11 11 11 11 6 7 12 12 9 8 8 11 8 9 7 4 4 5 3 5 6 8 9
3 6 9 7 0 5 4 5 7 5 6 6 5 5 5 5 5 6 6 8 10 11 12 16 8 8 12 15 15 10 9 10 8 9 9 8 2 4 4 5 7 7 9 9
4 5 2 3 1 6 7 8 7 8 8 6 8 6 6 4 5 4 5 8 11 13 14 18 14 16 17 18 16 11 9 8 8 6 7 4 3 3 6 7 7 9 9 9
6 6 5 5 8 8 8 7 9 7 6 7 12 6 7 6 4 3 6 12 14 15 19 17 18 23 18 15 11 11 13 10 7 6 4 1 1 4 7 7 8 9 9 8
5 5 4 7 8 7 7 9 8 9 15 8 9 9 6 3 2 7 13 15 15 20 16 19 21 21 15 16 17 19 15 11 11 8 6 5 3 7 10 9 8 9 8 8
6 9 5 4 5 8 11 12 17 18 16 13 10 7 4 3 6 11 14 14 19 17 19 22 20 21 20 19 17 18 13 13 13 14 9 5 5 7 8 8 10 10 10 7
8 1 6 8 8 8 12 16 10 8 8 8 6 5 5 5 8 14 16 18 17 18 19 19 19 24 21 17 18 16 13 13 15 8 6 6 7 6 6 9 10 8 10 9
6 7 10 11 10 8 9 6 8 5 5 3 4 5 7 8 14 15 16 15 15 17 20 21 23 24 20 18 16 16 13 14 10 7 6 8 9 7 8 8 8 10 11 10
12 8 8 9 10 6 6 7 7 5 2 1 4 6 9 15 14 15 17 14 16 18 20 22 23 20 21 18 18 16 15 13 10 10 10 12 11 10 10 8 12 13 13 12
11 11 17 11 8 6 5 5 4 1 2 5 5 9 12 13 12 16 17 16 18 19 18 19 20 21 24 18 20 17 14 14 13 13 11 11 11 13 15 11 11 12 11 9
24 17 15 11 11 8 4 4 4 5 7 9 9 11 11 11 13 15 15 15 18 19 20 22 23 21 23 22 24 21 17 17 16 15 14 13 14 15 14 15 14 11 12 13
14 16 12 8 6 6 4 5 7 9 10 10 11 11 12 14 12 14 16 20 22 22 20 24 19 27 22 22 23 19 17 17 17 15 15 15 16 16 15 14 15 13 11 10
12 9 8 6 4 5 7 9 10 11 12 12 13 16 17 17 14 15 18 15 24 19 18 22 25 28 21 24 21 17 18 19 20 21 19 20 17 16 17 16 15 17 10 10
6 4 3 5 6 9 10 11 12 15 16 16 17 19 16 17 17 17 18 20 24 18 19 23 25 26 24 24 21 19 18 21 23 24 24 23 21 17 17 18 15 13 14 13
4 6 6 8 9 10 13 14 15 16 17 18 20 21 21 23 19 17 16 20 22 24 26 26 25 25 24 23 21 20 21 23 24 24 26 27 26 22 19 19 19 18 18 17
6 7 8 9 10 12 13 18 18 20 21 22 22 22 22 20 14 15 17 22 21 21 22 24 23 23 24 21 21 19 21 26 28 31 31 30 27 26 25 24 22 21 19 20
6 7 8 10 10 14 17 21 21 21 19 21 21 20 16 9 12 18 19 22 21 22 23 23 23 23 23 22 21 20 22 25 28 29 30 32 29 26 25 23 21 19 18 18
10 12 12 13 14 16 19 20 18 17 17 19 20 12 13 15 14 17 20 19 18 18 21 20 21 22 23 23 23 24 24 27 28 30 30 30 29 28 26 23 21 20 19 19
14 16 17 18 21 22 20 18 15 14 21 23 22 19 17 15 15 16 14 12 16 18 20 21 23 21 23 25 27 27 25 25 28 29 29 30 28 28 25 20 19 17 16 16

GFSNGP_925_spd_021.txt.gz
Wind_Speed
3 4 2 1 3 5 6 5 5 5 7 5 10 9 8 7 6 6 5 3 2 1 2 7 4 5 3 5 6 8 9 10 9 10 13 15 19 20 21 18 17 15 10 9
1 4 5 3 5 7 6 4 7 5 5 3 5 5 6 8 7 5 4 3 3 2 5 3 6 3 2 6 8 8 9 8 8 11 15 17 18 17 16 15 11 7 8 9
3 4 4 6 8 8 5 4 6 6 8 7 5 8 8 7 7 6 5 5 3 4 2 6 5 1 5 10 11 11 8 8 10 13 16 18 17 16 13 14 5 4 7 3
2 3 2 6 3 4 6 4 3 2 7 10 6 4 5 6 6 7 6 4 3 4 7 8 3 5 9 11 12 10 6 9 11 14 18 19 17 15 11 2 8 10 2 2
4 3 5 4 5 7 7 7 7 6 5 4 4 3 3 6 5 6 6 6 8 6 7 4 4 10 10 9 5 4 7 10 15 17 17 18 16 13 10 9 10 4 2 3
2 4 6 6 3 5 4 5 8 8 8 8 7 3 5 8 6 9 7 10 8 5 3 4 9 7 3 3 5 7 9 14 16 13 16 16 14 11 10 9 6 4 1 6
2 4 8 6 4 3 5 7 7 10 10 9 8 5 3 6 5 7 10 7 5 3 3 6 4 3 5 5 8 10 14 14 13 12 15 14 11 9 7 5 5 1 5 5
3 1 8 7 3 8 6 2 9 9 9 13 7 6 5 7 7 10 9 7 3 3 5 5 8 7 7 9 13 16 15 13 11 13 9 7 5 1 5 5 2 2 4 4
9 6 4 6 4 5 6 6 7 8 5 8 7 6 6 5 7 8 9 4 2 3 4 7 10 7 9 13 15 18 17 13 11 8 7 5 5 5 5 3 2 3 4 4
2 5 8 8 5 3 6 5 5 6 7 7 7 6 6 6 7 8 5 3 1 4 7 10 13 10 12 17 17 19 17 12 9 9 8 7 6 5 4 2 4 4 5 6
5 7 5 7 7 5 5 6 7 9 7 11 9 7 6 6 7 6 4 0 5 7 9 13 12 13 17 19 14 13 10 12 12 9 6 4 3 5 5 5 6 6 7 7
7 8 5 5 5 7 9 10 10 9 6 5 9 7 9 8 8 6 1 4 7 9 14 14 14 19 18 16 11 12 14 17 15 10 10 7 7 7 6 7 7 6 8 8
6 5 4 3 5 6 7 8 7 9 12 10 8 10 10 5 6 2 2 6 8 13 13 14 18 19 20 17 14 15 17 19 12 10 12 12 10 9 8 9 7 6 6 7
4 6 1 4 5 7 7 10 18 18 19 14 13 10 8 5 3 2 6 9 11 13 14 15 18 16 19 19 16 16 18 15 13 13 14 17 12 12 11 8 9 8 6 6
6 3 3 6 7 8 18 19 13 10 8 9 8 7 5 4 2 6 9 10 12 13 15 16 16 22 20 18 17 17 15 15 12 14 16 13 12 13 13 9 9 10 9 8
4 3 6 8 11 12 12 12 10 5 3 4 5 4 1 1 5 8 8 11 12 14 17 18 19 21 20 18 20 18 19 15 13 13 10 11 13 14 13 12 11 11 12 11
5 5 8 10 11 13 10 6 5 4 4 5 4 1 2 5 7 8 10 12 12 14 16 16 19 19 20 19 22 18 17 19 14 13 13 16 16 18 17 14 13 12 13 11
13 17 16 14 11 6 5 7 2 4 3 3 2 3 6 7 8 11 12 12 14 16 18 19 16 20 20 20 24 23 22 23 18 16 16 17 14 14 14 15 17 15 13 12
24 20 17 15 11 6 3 0 3 3 3 5 6 7 9 11 11 13 12 14 18 20 23 16 16 17 22 24 22 19 23 22 22 19 19 17 17 16 15 16 17 18 17 15
15 14 13 9 6 4 1 2 5 7 7 8 8 9 12 16 14 15 15 16 19 21 19 15 17 21 23 23 23 21 23 22 20 20 18 17 18 19 18 17 17 18 20 18
9 9 6 5 3 3 4 5 7 9 10 11 11 14 14 19 18 16 17 15 22 18 17 20 22 24 24 23 24 24 23 20 19 21 21 22 22 22 22 21 20 20 19 20
1 3 3 3 2 4 6 7 8 11 12 14 14 14 15 21 23 21 19 19 21 18 21 21 22 23 21 21 24 22 22 21 21 22 25 26 27 27 27 25 24 22 21 20
2 3 4 6 6 7 9 10 12 13 15 17 18 20 21 24 24 18 14 15 15 19 19 21 21 21 21 22 22 22 21 20 22 24 27 29 29 28 29 28 27 24 23 22
6 6 6 7 8 8 9 14 16 17 17 16 17 17 19 23 23 19 13 15 16 18 19 17 19 20 21 21 19 19 22 24 23 22 25 28 29 29 31 33 30 30 28 27
6 7 8 9 11 13 16 19 20 20 19 21 20 21 23 23 19 21 18 15 16 16 15 15 20 20 20 20 21 22 23 22 22 25 27 27 29 28 29 29 29 28 26 24
8 12 13 13 14 17 20 22 20 21 14 17 25 26 24 20 23 25 23 18 14 11 13 15 18 18 20 20 22 24 24 25 25 25 26 28 29 30 29 28 27 28 22 19
15 18 19 19 20 22 22 22 18 19 18 21 19 21 22 22 21 21 18 14 8 9 10 12 16 20 18 19 20 21 22 23 25 25 27 28 28 29 29 28 26 26 17 14

GFSNGP_925_spd_024.txt.gz
Wind_Speed
2 3 1 2 4 6 7 5 6 5 7 7 9 10 8 8 8 7 7 6 5 4 5 2 5 7 5 1 3 7 10 10 7 7 12 17 21 23 21 20 17 15 7 3
1 4 5 4 6 7 5 4 7 4 10 7 2 7 7 10 9 7 6 6 6 6 4 6 10 8 3 4 8 10 12 9 8 11 16 19 20 21 21 17 14 14 8 7
3 4 5 6 9 10 5 5 7 6 9 5 4 7 9 9 9 8 7 7 7 6 7 8 8 4 4 8 11 12 11 8 9 14 17 19 19 19 18 15 7 5 8 3
2 3 2 6 2 3 7 4 7 2 4 6 4 2 5 6 8 8 7 6 6 7 6 8 6 4 8 11 12 11 7 9 12 15 17 17 18 18 16 10 8 11 3 2
4 3 6 4 5 7 8 8 9 7 4 4 4 4 3 7 6 7 6 9 7 6 7 7 5 7 10 9 7 6 10 11 13 15 16 18 19 18 13 11 10 5 4 2
3 3 6 7 3 3 4 5 7 8 7 8 6 3 7 10 8 10 11 9 10 7 7 4 5 8 6 7 9 11 10 13 14 15 16 17 19 17 14 13 8 6 2 4
3 3 8 7 3 2 5 7 5 9 7 8 6 7 3 7 6 11 10 11 9 8 4 3 3 5 9 10 11 11 13 17 16 15 15 17 15 13 10 6 6 5 3 5
3 2 7 6 4 7 6 2 6 8 8 13 6 6 5 6 7 12 14 12 9 5 1 0 5 8 10 10 10 13 16 19 19 13 15 13 13 10 6 6 5 4 5 6
9 6 4 6 5 3 2 3 5 7 7 11 8 6 7 6 7 9 12 11 5 2 1 4 7 8 9 10 13 18 17 19 15 12 13 13 12 10 9 7 5 6 8 8
2 4 7 9 7 6 5 7 3 4 6 10 11 9 7 8 8 11 9 6 2 1 4 7 9 8 8 13 16 16 13 15 13 13 13 12 11 10 9 7 7 9 10 10
5 9 6 9 8 9 5 4 5 4 6 8 9 8 7 6 6 11 8 4 2 4 5 9 9 10 13 15 16 14 12 13 14 17 16 11 9 8 9 9 10 12 12 11
6 9 4 7 4 2 6 7 6 7 6 6 11 10 13 8 10 9 5 2 4 4 7 10 11 14 16 16 13 13 15 16 17 20 16 12 12 12 11 11 11 12 11 12
6 1 5 4 5 3 4 6 6 8 11 11 13 17 14 7 8 7 4 2 4 6 9 12 15 18 16 14 14 14 15 17 19 17 12 12 14 17 15 12 10 10 11 10
5 4 4 4 4 4 6 10 18 19 20 21 17 10 10 8 8 5 3 4 5 8 11 13 16 16 18 14 15 14 15 17 17 16 15 14 17 20 17 16 15 13 10 10
4 4 1 2 6 8 15 18 14 12 11 13 9 6 6 6 5 4 4 5 7 10 12 14 15 17 12 15 17 17 19 19 19 17 15 16 19 16 15 16 18 15 13 11
3 4 7 11 12 12 14 13 14 11 6 3 4 4 4 5 4 5 6 6 7 11 12 12 13 13 14 16 18 19 20 21 17 18 18 15 14 15 17 19 19 19 16 15
3 6 10 12 12 13 12 10 10 6 5 5 4 5 5 5 7 8 7 7 9 12 14 16 17 16 15 18 16 20 24 21 22 20 21 18 18 18 19 20 21 21 19 15
16 16 16 15 12 9 6 8 6 2 2 3 5 5 7 8 9 11 11 11 13 14 15 15 14 13 13 16 19 22 24 21 19 21 22 23 20 19 20 19 18 20 21 19
22 17 17 14 10 8 4 3 0 2 3 3 5 8 8 12 14 15 15 16 18 17 17 15 15 15 18 19 20 20 22 22 23 23 22 22 20 21 20 21 21 20 21 20
15 11 9 5 3 5 4 4 4 4 4 4 6 9 13 17 18 17 16 20 21 22 18 16 16 19 21 22 22 20 22 23 23 24 21 20 23 22 22 23 23 23 22 23
6 5 5 5 4 5 5 6 7 9 9 10 11 13 15 17 17 18 18 14 29 21 15 16 18 19 19 20 21 22 22 21 21 23 22 20 22 24 25 27 27 27 26 26
3 4 5 5 6 6 6 5 6 7 9 12 13 14 15 18 20 22 24 23 30 23 14 16 16 18 19 20 21 22 20 19 21 23 22 22 22 26 29 30 31 32 31 29
4 4 4 4 5 6 8 7 11 13 15 16 17 16 18 20 22 17 17 24 16 14 15 17 17 16 17 18 19 20 21 20 20 20 21 23 24 24 25 26 28 29 31 32
2 4 6 8 10 13 15 18 19 20 20 21 21 21 19 22 29 22 24 24 21 20 16 18 15 14 14 20 20 20 21 20 21 20 21 22 23 25 25 27 27 28 30 29
10 11 13 16 15 13 16 20 22 20 23 21 21 22 25 26 21 29 26 27 27 27 18 12 11 12 15 17 18 20 21 22 22 23 23 23 23 24 26 27 28 29 29 28
14 12 13 14 13 14 15 17 16 17 19 21 23 23 24 27 27 26 27 26 21 20 11 10 11 14 17 16 15 15 16 18 19 19 21 23 23 24 25 28 30 29 28 26
10 13 12 12 14 16 18 19 19 20 22 23 26 26 26 27 26 27 28 26 22 14 10 8 9 11 11 11 12 13 15 16 17 19 20 20 21 22 24 28 30 28 24 22

GFSNGP_925_spd_027.txt.gz
Wind_Speed
1 1 1 2 4 8 8 4 6 3 8 5 7 11 11 8 11 13 13 11 9 8 9 7 7 8 8 7 4 5 8 10 10 8 8 12 16 20 20 17 13 13 10 6
3 1 3 3 5 7 7 4 10 5 14 10 1 4 9 13 15 16 14 12 10 10 11 10 12 11 9 6 4 7 10 11 9 8 10 15 19 18 16 14 12 8 6 4
3 3 2 5 9 12 6 6 9 10 9 5 5 8 12 14 16 17 15 12 11 12 14 12 10 11 8 5 6 9 10 8 6 8 13 17 15 14 14 12 8 5 8 4
2 2 1 4 2 3 12 7 14 5 4 6 2 3 5 10 16 15 13 12 11 13 10 9 12 10 5 5 8 7 6 6 8 11 14 14 13 14 14 10 8 8 6 4
3 3 5 5 4 6 7 6 12 14 6 3 3 1 4 11 13 15 14 13 13 12 11 13 11 6 5 6 5 6 7 8 10 13 13 11 12 16 14 10 8 7 5 5
3 3 5 5 2 2 3 4 2 8 7 8 7 2 5 13 13 12 12 13 13 13 13 11 6 3 4 5 6 8 8 10 13 15 13 11 14 13 13 9 8 6 6 5
2 3 7 6 2 2 2 5 1 6 7 11 6 6 1 7 9 13 13 13 16 12 10 7 4 2 5 7 8 8 10 13 15 16 14 11 12 11 11 7 5 7 6 6
3 1 6 5 3 4 4 2 2 5 8 12 8 5 4 8 12 16 18 17 15 13 9 6 2 3 5 6 8 9 13 15 15 16 12 11 11 10 9 7 6 7 7 7
8 5 3 6 4 2 2 3 2 3 4 7 4 6 8 10 11 14 13 15 13 8 6 3 2 4 5 6 9 13 16 14 12 13 10 10 10 9 9 8 8 7 7 8
1 3 8 10 7 7 6 9 5 6 6 8 8 10 9 10 12 12 16 9 11 8 4 3 4 5 5 8 11 14 13 11 10 11 12 12 11 10 9 9 9 8 9 10
4 8 5 8 8 11 9 6 7 3 3 6 10 11 13 11 11 12 12 7 7 4 3 4 5 6 8 11 12 11 11 11 12 12 13 14 12 11 10 10 10 10 12 11
5 5 3 5 4 3 3 4 4 5 4 6 14 13 17 10 14 9 8 7 4 3 3 4 6 8 10 11 9 8 9 10 11 13 14 13 11 11 13 15 14 13 13 13
4 2 4 7 7 4 5 3 3 7 11 13 17 21 19 9 9 10 7 4 4 5 4 6 8 10 12 12 9 9 10 12 12 13 13 12 10 11 13 13 16 15 14 14
5 3 3 6 5 8 10 16 22 22 23 22 18 13 13 9 8 7 6 5 5 5 6 7 8 10 9 8 9 12 13 14 15 15 14 13 13 13 13 14 14 11 12 13
11 4 3 8 12 13 17 20 17 14 15 16 13 8 5 5 4 5 5 6 7 7 8 6 8 10 8 9 12 14 14 12 14 18 17 16 16 15 14 14 12 12 12 14
8 12 13 15 14 15 17 16 16 11 9 6 1 2 1 3 5 6 7 8 9 10 8 8 12 14 14 15 14 13 12 15 18 18 16 15 15 16 15 14 14 15 15 16
3 8 11 10 13 13 13 12 10 5 3 2 8 7 5 5 7 10 11 10 11 12 12 13 16 17 17 15 13 12 12 15 18 19 18 15 17 17 17 15 15 17 18 16
19 17 16 11 9 7 5 6 5 6 4 4 4 3 4 7 10 14 14 12 14 18 18 18 17 16 16 16 17 16 17 16 15 15 18 19 17 16 17 16 16 18 16 15
19 16 14 13 10 7 4 1 1 1 2 2 3 5 7 10 13 15 14 15 17 21 28 23 17 16 17 18 19 20 20 18 16 16 18 19 17 16 17 17 17 17 17 17
8 6 5 4 4 4 4 4 3 4 5 5 6 9 11 15 15 15 17 18 19 22 25 26 24 18 17 17 16 15 17 18 16 17 19 18 16 16 16 22 21 19 19 20
5 6 6 6 7 7 8 7 8 9 9 11 11 14 16 17 17 15 12 14 23 23 22 17 15 16 16 16 15 14 16 17 18 20 17 17 17 16 16 18 20 22 23 23
4 5 7 7 8 9 11 11 11 12 14 16 17 18 20 20 20 20 20 18 25 23 20 16 17 16 16 14 12 15 19 20 19 19 18 16 17 16 15 16 16 18 21 24
7 8 8 10 9 8 10 15 18 18 19 20 21 22 20 19 17 14 17 19 22 26 25 24 25 18 16 13 14 15 15 18 19 19 18 19 19 19 19 19 20 20 21 23
9 11 11 10 11 16 16 17 19 17 19 18 17 19 22 22 25 17 22 29 26 25 24 23 23 18 11 12 11 12 13 15 16 18 19 21 22 23 22 21 20 20 23 24
12 11 13 14 13 12 14 17 16 17 19 20 20 20 21 20 22 31 29 30 30 24 24 23 16 12 10 10 12 11 11 11 11 13 13 15 17 20 22 21 19 22 25 25
11 10 9 10 10 11 13 14 15 16 20 21 21 22 24 25 26 27 28 28 30 29 25 19 12 8 7 6 6 6 7 9 11 13 14 14 16 17 19 21 22 23 25 26
10 11 9 7 9 11 13 14 15 18 18 20 23 24 26 27 27 27 27 28 28 25 11 4 4 5 5 5 6 7 8 9 12 14 15 16 18 18 22 22 22 20 18 17

GFSNGP_925_spd_033.txt.gz
Wind_Speed
14 5 6 8 8 11 16 15 13 12 13 10 9 6 7 7 9 12 13 14 15 15 16 21 20 20 19 17 12 11 10 12 10 9 9 10 10 11 13 14 14 15 15 12
6 8 7 10 11 13 14 16 17 17 17 15 10 9 6 9 8 11 13 14 15 16 18 20 20 20 19 14 13 12 12 11 9 9 10 10 11 12 14 14 15 16 14 11
5 3 5 6 15 17 17 17 12 15 15 9 8 6 8 7 6 9 10 12 15 15 18 18 19 19 16 16 13 11 11 9 9 9 9 10 12 14 14 15 15 16 14 12
0 2 1 2 2 4 6 12 14 13 14 12 7 7 6 5 7 7 9 11 12 14 17 17 17 15 16 13 9 11 9 8 8 9 10 11 13 15 15 15 16 16 13 11
2 6 9 11 5 1 2 4 9 8 10 11 6 5 13 8 3 6 7 8 11 15 16 15 14 15 14 12 10 7 8 8 8 10 12 13 15 16 16 16 16 15 14 12
3 3 4 4 4 1 2 5 7 9 10 10 3 5 2 4 2 4 6 8 11 13 12 14 15 14 13 9 6 6 7 9 10 11 12 15 16 17 16 16 17 15 13 11
5 3 6 5 3 2 5 3 8 10 9 8 7 4 7 8 4 7 7 9 9 10 12 14 11 6 2 2 4 6 7 9 11 12 14 15 16 16 15 16 15 13 11 10
3 2 5 6 6 2 5 7 8 9 9 8 10 9 7 8 7 5 4 6 9 10 11 10 7 5 1 6 2 3 7 10 12 14 15 15 15 15 16 17 15 12 12 11
6 1 5 4 4 4 5 7 8 10 10 10 10 12 12 7 6 1 4 8 8 13 10 7 4 1 3 2 3 5 8 11 14 15 14 14 16 17 17 16 14 14 12 12
1 3 1 3 3 3 7 8 11 11 11 11 12 11 10 2 1 3 8 13 12 10 7 3 1 3 5 4 5 8 10 13 13 14 14 15 16 19 14 12 15 14 12 13
5 8 4 1 7 9 10 9 10 11 10 9 11 9 4 5 8 14 15 14 12 8 3 5 5 5 5 6 8 11 12 12 12 13 14 16 18 17 13 13 14 15 14 14
3 5 4 7 11 9 8 10 10 10 10 12 11 11 16 13 18 16 14 10 9 5 3 5 6 7 8 8 9 10 11 11 11 12 15 17 17 17 15 15 17 20 22 22
3 8 4 5 10 11 12 13 15 16 17 17 22 22 21 16 15 13 9 5 3 4 7 8 10 11 10 10 10 10 11 12 13 15 16 16 17 17 18 18 18 19 21 23
5 7 8 11 7 12 14 17 21 23 23 22 21 19 16 12 7 4 2 3 6 8 10 11 12 13 12 12 12 12 13 15 17 16 15 15 17 19 19 19 18 17 18 19
7 10 10 11 12 13 17 19 16 13 12 11 10 10 8 6 4 2 5 6 7 9 12 13 15 16 14 13 15 16 17 18 17 16 16 17 18 19 20 20 20 20 19 17
10 10 10 12 12 13 13 11 11 7 7 6 6 4 6 6 6 7 7 8 9 13 16 19 22 22 19 19 20 21 22 22 19 18 19 19 17 18 20 20 20 18 19 19
11 8 11 12 12 12 10 9 8 7 7 9 7 8 8 9 9 8 11 11 15 19 22 21 24 19 18 20 23 25 24 23 19 19 20 21 20 20 19 20 20 20 20 20
14 12 13 12 9 7 7 8 6 5 7 7 8 9 10 10 10 12 14 18 22 22 22 19 15 17 20 22 23 26 24 21 20 20 21 20 22 22 18 21 21 20 20 18
15 13 12 9 7 7 6 6 7 7 8 9 10 10 11 13 12 15 17 15 17 20 21 22 24 23 24 26 24 23 21 22 21 21 17 22 24 24 22 21 20 19 19 19
11 10 9 9 9 8 8 8 5 7 8 10 12 11 13 14 17 16 17 17 18 20 21 20 27 27 27 29 28 24 21 22 21 16 18 20 24 25 24 22 18 17 18 20
9 9 8 9 10 11 12 9 9 8 9 12 11 12 13 16 13 15 18 19 21 20 22 29 29 28 25 30 31 28 24 23 19 17 17 19 21 21 20 20 19 17 17 18
8 9 8 8 9 9 7 7 7 8 9 10 11 13 16 17 19 18 17 20 24 29 29 29 29 29 32 35 32 28 27 27 23 16 16 16 16 15 16 16 16 16 17 19
9 10 10 9 7 6 5 8 9 7 8 10 11 13 15 16 18 20 19 23 27 28 30 29 30 28 31 34 33 28 27 28 14 5 8 11 13 14 14 15 16 18 18 19
9 8 7 6 5 4 5 7 8 6 8 10 11 13 14 18 18 17 21 26 26 28 26 27 29 29 27 24 23 20 18 14 11 10 9 9 10 11 12 13 15 16 18 20
7 7 6 3 2 4 5 8 8 9 11 12 12 12 14 15 17 21 21 22 23 23 24 23 24 25 24 22 20 18 16 15 14 12 12 12 11 13 13 14 15 17 18 19
6 5 5 6 5 6 6 9 9 10 12 12 13 14 15 15 16 17 18 18 20 21 21 20 21 22 21 20 18 17 16 15 15 15 14 13 14 14 15 17 17 18 19 21
7 5 3 3 5 7 8 8 10 10 11 12 14 14 15 16 16 17 18 19 19 19 20 20 19 19 20 19 17 17 16 15 15 16 15 15 15 16 17 18 18 20 21 21

GFSNGP_925_spd_036.txt.gz
Wind_Speed
14 16 2 10 9 7 11 11 11 10 13 11 10 9 7 4 3 6 8 11 10 8 7 16 17 18 19 20 18 16 12 7 7 11 5 7 6 7 8 9 11 13 13 16
8 10 10 12 14 13 14 13 13 14 13 10 6 7 8 8 6 5 5 6 4 4 6 11 16 18 18 16 18 14 9 10 8 12 1 6 6 7 10 12 13 12 13 16
2 6 7 5 10 16 15 14 10 11 9 7 12 9 7 3 6 1 6 6 3 6 7 10 13 19 16 16 16 11 11 12 5 5 8 6 6 9 11 13 12 14 16 16
1 2 1 7 4 5 5 7 9 8 11 13 12 11 7 6 4 5 0 3 5 4 7 9 8 14 13 15 12 10 2 3 7 6 6 7 8 12 13 15 13 13 15 16
3 4 7 10 1 2 2 5 11 10 10 10 9 8 10 1 8 7 8 7 7 6 1 5 9 15 14 12 11 5 7 3 8 4 7 12 12 12 13 14 14 13 15 16
3 2 4 2 5 3 2 2 8 9 8 9 10 4 6 10 6 5 7 7 8 3 4 13 16 13 15 10 9 12 12 13 13 8 11 13 16 15 14 14 14 15 12 8
3 1 6 6 5 1 2 3 4 5 7 8 7 5 4 7 9 11 9 18 20 21 23 25 22 17 20 19 16 10 5 9 15 14 14 15 18 13 13 15 17 17 15 12
2 2 5 6 5 2 4 5 8 7 7 6 6 8 10 7 5 9 15 17 17 28 27 25 23 20 17 14 8 8 14 10 12 14 15 15 17 16 16 18 19 14 11 12
7 3 5 3 4 5 6 4 5 7 8 9 9 9 10 7 9 10 17 25 24 22 21 19 17 15 11 5 5 5 8 11 13 15 15 15 16 16 14 18 17 10 12 11
2 2 5 5 3 10 10 8 8 8 9 10 10 9 7 10 12 19 22 21 19 19 17 15 12 9 3 3 7 8 11 13 14 14 14 15 17 17 18 18 10 11 13 15
5 3 3 14 13 10 7 10 10 10 15 13 9 16 19 16 17 21 20 19 17 14 10 5 4 4 7 8 8 10 13 13 14 14 15 15 16 17 16 16 13 15 16 18
1 8 3 11 10 10 11 12 11 13 16 18 19 17 21 15 18 16 13 10 7 5 2 3 5 8 9 10 11 12 13 14 14 14 15 16 17 18 15 18 20 20 22 21
4 4 9 12 16 15 13 12 14 14 15 14 17 19 18 14 11 11 7 3 1 2 5 6 9 11 12 13 15 15 15 15 16 16 16 18 15 14 19 23 20 20 20 23
4 3 8 8 9 13 15 15 17 18 17 16 16 13 12 11 7 4 1 4 7 8 10 12 13 14 17 16 15 13 16 19 20 23 22 18 15 18 18 18 19 21 21 20
10 13 13 14 15 12 14 15 13 11 11 11 11 9 6 4 4 6 8 7 8 11 13 16 18 23 22 22 22 21 22 23 24 26 25 21 21 20 21 20 20 22 22 20
10 10 11 13 12 11 12 11 10 6 7 10 12 13 11 11 11 9 11 14 14 13 17 21 23 23 18 18 20 23 24 26 28 28 23 22 20 20 19 19 20 19 19 20
12 9 11 12 12 11 10 8 10 13 13 13 11 9 10 11 11 13 13 16 18 18 22 21 21 17 18 20 25 26 26 26 28 27 21 21 21 20 20 19 21 19 20 21
10 13 11 12 8 7 9 12 11 12 10 8 9 9 9 11 10 13 15 17 18 18 20 17 20 26 25 25 26 28 28 28 25 23 24 23 21 19 18 21 23 21 20 20
17 14 16 13 10 12 12 11 11 12 11 10 9 9 8 8 10 11 15 16 16 16 18 19 24 26 27 27 28 26 27 30 29 27 21 20 21 18 20 21 22 24 22 20
15 15 15 14 14 14 12 8 11 13 11 11 10 12 13 15 15 15 17 14 16 19 26 26 29 27 28 27 28 30 30 31 29 27 25 22 18 17 19 21 20 22 20 17
13 14 14 14 14 16 14 12 11 10 9 13 13 13 13 14 14 17 15 13 18 27 26 28 28 25 27 32 36 30 30 32 30 26 26 25 20 14 12 12 14 16 18 16
13 11 13 15 13 13 11 10 9 10 11 12 11 12 15 14 15 15 15 17 23 24 28 25 23 33 38 33 27 27 28 34 26 20 22 20 3 8 11 13 16 18 19 19
13 12 11 11 12 10 9 9 7 10 10 9 9 12 12 13 14 15 13 19 20 26 23 22 27 32 31 27 27 27 29 28 27 26 24 21 18 16 15 14 16 17 19 20
14 13 11 9 10 7 6 8 7 6 8 8 10 10 12 13 12 13 17 18 20 23 22 22 25 28 28 26 26 26 26 23 25 25 24 23 21 20 19 19 19 20 21 21
12 10 8 7 6 8 7 7 5 7 8 8 9 10 11 11 11 15 17 17 20 20 20 21 23 24 24 24 24 24 24 23 24 24 23 23 22 21 21 21 21 21 22 21
9 10 10 10 9 7 6 6 6 7 8 9 9 12 12 10 11 14 15 18 18 19 19 21 22 22 21 22 22 22 22 23 23 23 22 22 22 22 22 22 22 22 23 22
10 7 7 8 8 6 6 6 7 7 9 7 9 12 12 11 13 13 16 18 18 18 19 19 20 21 21 21 20 21 21 21 22 21 22 22 22 22 23 24 23 23 23 22

GFSNGP_925_spd_039.txt.gz
Wind_Speed
5 5 3 4 5 6 4 6 7 8 7 13 3 6 6 4 2 2 5 4 7 11 7 20 25 25 27 26 25 29 24 16 15 9 8 1 10 12 6 10 11 12 14 15
2 6 7 3 5 8 6 5 1 4 6 4 4 6 7 7 7 7 8 8 8 8 9 15 22 27 27 28 28 27 24 20 14 5 2 3 4 12 8 9 12 13 13 14
2 4 6 6 6 6 6 4 3 4 4 8 10 9 6 6 8 6 6 7 7 5 10 19 26 28 24 27 30 24 19 13 9 13 3 10 7 6 7 14 18 16 19 15
3 3 1 9 1 5 6 6 8 9 7 7 6 9 12 9 9 9 9 9 8 8 4 10 20 24 29 29 24 22 20 14 9 10 9 7 11 14 16 18 17 19 14 15
4 4 5 6 2 2 4 4 6 8 8 7 7 6 8 9 7 7 7 7 12 20 24 25 26 27 28 28 24 21 20 19 16 13 14 15 14 15 19 22 23 18 17 17
2 4 6 6 3 4 3 2 4 8 8 8 8 5 3 5 7 12 25 26 27 27 30 30 27 33 35 28 27 26 20 15 13 11 9 10 17 17 21 15 16 16 18 16
2 2 7 5 5 0 6 5 4 7 6 7 4 4 4 5 12 26 25 26 29 33 30 26 28 32 28 26 25 18 13 8 3 6 12 13 17 13 15 18 20 22 22 20
4 3 5 6 3 6 6 3 7 6 5 6 6 9 9 14 16 21 23 26 26 28 26 24 25 27 22 20 13 8 1 6 7 9 11 13 16 17 18 19 21 21 19 14
7 6 6 4 9 6 9 7 5 7 8 8 8 10 16 15 16 20 22 23 23 23 21 20 20 17 14 5 4 1 4 8 12 13 12 15 16 17 18 19 22 24 17 14
5 3 5 12 10 9 11 13 14 12 8 12 15 14 14 13 13 17 19 19 19 18 15 11 9 10 9 5 3 6 10 13 13 14 15 18 19 17 18 20 15 12 14 17
3 10 14 10 7 11 12 16 16 16 14 13 16 13 12 11 12 14 13 13 13 14 13 11 8 6 5 5 8 13 13 14 15 18 18 19 19 20 19 19 17 18 20 21
4 4 10 6 10 13 16 14 12 15 14 14 15 11 12 9 11 13 14 14 14 10 7 6 6 9 11 11 13 13 13 19 20 20 20 22 23 24 19 18 23 21 23 23
4 12 16 14 14 14 15 13 13 13 14 12 15 15 15 12 14 12 11 8 7 10 10 9 10 11 14 17 17 18 22 22 23 22 23 25 26 26 24 28 24 23 21 22
10 17 9 3 8 11 14 17 21 20 19 18 18 18 16 13 8 6 9 10 11 12 13 14 15 18 20 18 18 20 21 21 26 29 30 31 32 32 33 28 21 24 25 23
11 12 14 16 15 11 16 16 12 10 10 11 11 10 9 10 13 18 18 16 13 13 15 18 18 20 20 20 21 23 24 26 28 31 31 32 31 28 28 27 26 29 28 27
13 15 14 14 13 11 11 8 9 6 9 12 15 17 16 18 17 17 16 18 16 14 15 16 16 17 21 21 23 23 23 25 28 28 29 29 28 22 22 21 22 22 21 25
15 8 11 11 12 12 9 9 12 12 14 14 13 14 16 15 15 16 16 15 13 14 16 14 19 23 25 22 23 23 26 26 25 26 26 27 28 27 21 18 19 17 21 26
9 11 11 12 13 13 12 15 16 16 13 12 12 12 13 13 10 11 14 15 15 13 19 20 25 26 23 22 23 26 25 27 28 27 29 28 27 31 22 21 22 21 23 26
17 15 18 17 19 18 16 16 17 18 15 13 15 13 11 12 10 12 14 16 17 16 17 22 23 18 21 28 33 33 30 28 27 28 32 30 26 23 23 24 20 20 22 24
18 21 22 20 22 21 18 20 21 20 16 16 15 15 13 13 13 13 12 14 15 16 23 23 16 26 31 31 27 26 27 25 26 25 35 27 26 26 25 25 18 8 9 14
16 18 18 19 19 22 23 21 20 17 15 14 16 14 12 11 11 13 12 10 11 21 21 16 22 29 32 26 24 25 25 24 26 26 28 29 26 28 28 26 20 17 16 16
15 16 18 19 19 18 17 18 18 16 14 12 12 12 11 10 11 9 13 12 14 20 21 17 23 25 28 24 24 24 26 22 27 25 25 25 25 25 24 24 22 22 22 21
16 17 18 19 18 18 16 16 14 14 12 10 11 10 9 8 10 11 8 12 16 18 18 17 21 23 24 25 23 23 25 22 25 25 24 24 24 23 22 23 22 23 23 23
17 17 18 20 21 19 13 10 11 12 12 10 11 10 8 7 6 9 11 12 16 16 17 18 19 20 21 23 22 22 23 22 22 25 23 23 23 22 22 23 23 23 23 23
19 17 17 15 15 13 13 10 13 11 9 8 8 8 9 6 6 8 10 13 13 15 15 17 17 18 19 20 20 21 21 22 23 22 23 24 22 23 22 23 24 23 23 25
17 16 18 19 16 15 12 9 12 10 6 5 6 10 9 5 7 8 10 13 14 13 15 15 16 16 18 17 18 18 19 21 22 19 23 25 21 24 23 24 24 24 24 22
17 18 18 17 15 11 9 7 6 5 6 4 8 8 8 6 6 8 11 14 13 13 15 13 15 16 18 15 19 18 19 21 20 17 23 27 24 22 22 23 23 25 24 26

GFSNGP_925_spd_042.txt.gz
Wind_Speed
5 4 2 3 5 3 5 4 5 9 8 8 3 3 4 7 3 4 3 3 5 4 4 14 15 16 22 27 31 35 34 32 27 21 17 13 10 9 6 4 6 7 8 14
2 3 2 2 4 4 5 3 5 5 2 6 5 5 8 6 8 8 6 5 4 6 10 16 22 25 24 27 27 26 25 21 22 19 14 11 9 7 5 1 3 9 16 20
4 3 3 5 7 7 5 3 5 5 5 2 7 7 5 6 8 8 7 7 5 4 8 17 22 27 24 23 26 27 26 22 19 17 17 12 8 7 7 6 15 17 20 17
3 3 2 7 4 5 9 5 7 8 5 6 9 5 8 6 6 7 7 8 9 11 15 13 17 22 27 29 29 28 26 23 19 18 16 13 9 1 9 14 18 17 21 24
4 3 4 5 5 6 6 1 1 7 5 6 6 6 7 7 10 8 10 11 15 19 22 27 26 28 32 30 29 27 24 23 21 20 14 3 10 16 16 16 19 22 17 17
3 4 7 7 3 5 5 2 5 7 5 4 4 3 0 6 9 11 17 16 19 22 28 30 26 30 32 26 26 24 22 17 10 6 10 11 11 13 15 16 14 14 17 20
2 3 7 7 6 3 6 6 6 7 7 5 4 3 10 10 13 17 18 20 23 27 27 25 27 30 27 23 20 14 9 10 12 7 8 9 10 12 15 17 17 19 21 20
3 3 6 6 4 7 6 4 7 6 6 9 10 13 13 12 12 14 17 20 21 24 23 24 22 21 18 12 5 3 3 2 2 5 9 12 11 14 15 16 17 19 21 23
8 5 3 3 5 5 7 8 4 8 6 13 12 11 11 11 11 13 16 17 18 19 17 16 13 12 11 9 6 3 2 5 9 10 10 12 12 15 18 18 18 20 20 20
5 5 5 7 8 7 7 10 7 7 9 13 15 12 13 11 9 11 12 12 13 17 17 15 13 11 9 5 4 7 10 12 12 13 14 18 18 19 19 20 22 22 20 21
4 1 9 8 6 11 13 12 14 12 12 13 15 12 10 8 10 13 14 15 17 16 13 11 10 10 11 11 11 12 13 15 16 17 21 21 22 23 24 26 24 25 23 22
5 11 5 4 4 8 13 11 11 15 12 12 14 12 15 10 14 15 13 15 14 14 14 13 14 14 14 14 15 15 17 20 24 27 27 27 28 32 31 30 29 28 29 27
6 7 13 13 9 8 14 12 13 14 15 15 16 19 16 13 15 15 16 17 17 17 16 15 15 16 17 18 18 17 19 21 24 25 27 28 27 26 26 33 30 31 32 33
19 18 10 1 7 11 16 18 22 21 20 19 19 20 19 16 18 19 18 15 14 14 15 15 16 20 21 21 21 22 24 25 25 28 26 25 24 25 25 24 25 27 26 28
6 8 13 16 15 14 19 20 15 13 12 13 16 17 20 17 16 15 14 13 13 16 15 14 16 20 22 22 23 23 23 24 26 27 26 26 26 26 26 26 24 24 22 28
14 17 16 16 15 13 13 12 14 10 11 14 16 17 17 19 17 16 16 16 17 16 13 13 17 20 21 19 20 21 22 24 26 25 26 26 26 26 26 25 25 25 21 23
17 9 13 13 14 13 12 9 11 11 14 15 13 16 18 18 18 16 14 12 16 15 14 18 18 18 17 21 26 28 27 25 24 23 23 22 29 29 27 27 26 27 24 23
9 12 12 16 15 14 12 15 17 16 15 15 17 18 18 16 11 10 11 12 12 14 19 18 15 18 21 23 22 22 22 23 23 22 23 24 28 30 28 27 26 22 25 21
17 14 18 21 20 19 18 17 16 18 18 20 19 17 15 13 10 11 12 13 15 13 16 12 14 19 20 21 19 19 21 21 22 23 23 25 27 26 24 31 29 22 20 17
16 21 23 21 21 25 20 19 21 19 19 18 18 16 14 13 10 11 12 15 12 11 10 9 14 17 16 19 17 19 19 18 23 22 22 23 23 24 23 26 26 26 25 25
15 20 21 22 20 20 21 23 23 18 16 15 17 15 14 12 11 9 10 8 7 11 9 7 13 16 19 21 16 19 19 17 23 22 21 21 22 22 22 23 23 24 24 24
18 19 19 20 20 17 19 20 22 21 18 16 15 13 13 12 12 12 9 7 6 8 8 9 11 14 16 19 17 18 19 18 19 23 21 22 22 21 22 22 23 22 23 23
18 19 18 17 18 18 20 18 17 17 16 14 13 11 10 9 7 6 4 4 5 7 7 9 10 13 14 16 17 17 17 19 18 20 20 22 20 20 21 21 22 23 23 24
18 17 17 19 23 19 14 14 13 14 15 14 11 8 6 8 6 4 3 4 5 7 7 9 11 12 14 14 15 15 15 18 18 15 20 22 20 21 21 21 22 22 23 24
18 18 20 18 14 11 15 16 17 15 14 10 7 5 5 4 2 4 2 5 7 7 8 9 10 12 14 12 13 13 15 18 17 12 19 23 23 21 20 20 21 22 23 23
17 14 15 16 15 15 15 14 13 11 11 7 5 4 5 6 3 1 4 7 8 7 8 9 10 12 14 10 12 12 14 17 18 14 19 23 23 21 20 20 22 22 24 24
19 20 18 16 13 12 12 10 9 7 5 4 4 2 6 3 1 3 6 10 9 7 7 8 10 12 14 12 10 11 14 17 18 18 20 24 24 20 20 20 22 22 24 26

GFSNGP_925_spd_045.txt.gz
Wind_Speed
4 4 3 4 4 7 6 6 6 8 7 5 5 5 6 6 4 4 4 7 7 6 6 8 8 12 16 21 24 27 27 25 25 24 21 18 18 12 8 11 9 5 3 11
2 3 4 4 6 6 6 3 6 5 5 3 4 4 7 8 7 7 6 6 1 6 6 12 15 16 18 21 23 25 25 23 22 19 19 17 16 17 14 12 6 7 13 17
4 2 2 5 8 8 6 5 6 6 8 3 3 6 5 6 7 7 7 8 8 7 6 5 8 14 19 22 22 22 23 22 23 22 23 20 16 11 7 8 13 15 18 17
3 3 3 7 3 4 5 2 4 5 6 4 6 5 6 6 5 7 7 8 8 10 14 15 16 19 23 24 25 26 25 26 25 25 22 13 7 11 10 12 13 14 18 19
5 4 5 3 3 7 6 2 3 7 8 7 6 5 7 9 9 8 7 9 12 15 18 23 24 26 30 29 29 29 25 25 21 12 7 6 5 8 11 13 15 15 17 15
3 5 7 8 4 5 6 2 5 5 7 9 3 3 3 5 7 8 13 13 15 18 22 26 23 27 33 29 31 27 20 12 6 10 11 6 6 8 12 13 14 15 19 18
3 3 7 7 5 5 6 7 8 7 7 6 4 2 7 8 9 13 14 17 21 24 24 24 26 29 29 25 19 11 5 5 7 4 4 6 8 11 13 15 17 19 21 21
3 3 6 5 4 8 6 3 7 6 5 6 10 10 10 9 8 11 13 17 19 21 21 18 18 21 18 16 8 7 5 4 4 5 8 10 11 13 15 17 20 22 24 25
8 6 3 3 4 1 4 9 5 7 6 13 13 8 10 9 8 10 13 17 18 20 21 21 18 17 17 12 8 7 6 7 9 9 11 12 14 17 20 20 23 25 26 29
4 1 1 3 3 3 4 5 7 8 14 11 15 12 12 10 8 11 14 16 18 19 17 18 16 16 12 8 7 8 9 11 14 16 18 20 22 21 23 24 27 29 26 25
3 2 3 5 3 5 9 10 14 11 9 14 16 12 12 10 9 13 15 15 17 17 17 15 15 16 13 13 10 11 11 14 16 18 20 24 25 24 25 28 28 29 28 29
5 12 5 5 7 7 10 9 10 16 12 10 15 14 16 9 14 16 15 17 18 19 19 15 16 17 17 17 16 16 18 20 22 25 27 26 27 30 25 28 32 32 33 32
6 12 6 11 7 5 11 9 11 13 14 16 16 20 20 16 16 21 20 20 18 16 17 17 16 18 17 17 17 19 19 20 23 24 23 22 22 23 28 35 29 30 30 32
15 17 9 4 6 10 13 16 19 18 18 19 20 21 21 19 21 19 17 15 14 14 14 13 15 18 17 16 18 19 19 20 21 23 23 21 23 24 24 26 29 34 32 32
5 7 11 17 14 13 18 18 15 13 13 15 18 20 21 17 15 15 15 15 16 17 14 13 15 17 15 17 19 20 21 21 22 22 21 22 22 22 25 28 28 29 32 32
13 16 17 17 16 15 15 13 16 11 9 15 17 17 19 22 20 18 14 12 15 14 13 14 14 13 16 18 19 19 20 20 21 23 22 21 21 23 24 24 30 28 27 30
19 11 13 14 14 15 14 12 12 12 15 16 17 21 22 20 18 17 18 17 17 14 12 12 11 13 15 16 16 18 19 19 19 18 18 20 20 21 24 22 23 25 30 34
10 11 8 16 17 16 14 14 17 17 15 17 22 22 19 16 14 16 16 14 12 14 12 10 12 12 13 15 15 14 17 15 18 19 18 19 21 20 21 22 23 24 27 30
16 16 16 18 20 18 17 18 17 18 21 24 22 18 17 15 17 17 14 12 12 10 7 7 10 12 14 15 14 15 15 15 19 19 19 20 20 22 19 21 22 23 24 24
16 20 22 21 21 24 19 18 21 19 19 21 22 19 17 15 16 14 10 13 8 5 2 6 10 11 13 15 13 15 13 13 17 18 18 20 20 20 20 21 22 22 22 23
15 20 20 21 19 18 20 23 23 18 17 19 19 18 16 15 13 10 9 7 4 5 3 5 9 10 12 13 13 13 13 14 14 17 17 20 21 20 23 22 23 23 22 23
17 17 20 21 20 18 18 20 23 22 20 19 17 17 17 14 12 10 7 5 2 3 4 6 6 8 10 11 11 11 12 13 14 14 17 20 21 20 24 23 23 23 23 23
18 20 21 20 18 18 19 21 21 21 20 18 16 14 12 11 9 9 7 1 1 3 4 5 6 7 8 9 10 10 11 14 15 12 15 19 21 20 21 22 22 23 22 24
18 17 17 19 22 20 16 15 16 17 17 14 12 10 12 12 7 5 4 2 1 3 4 5 5 5 8 9 9 10 11 13 16 14 15 19 22 21 20 21 22 23 23 24
16 17 18 18 15 12 15 16 18 16 14 11 9 8 7 6 3 7 3 1 3 4 5 4 5 7 9 10 10 10 10 13 15 15 16 20 22 23 21 20 20 23 24 24
17 15 14 13 12 14 14 15 13 14 13 10 7 5 7 5 5 5 1 2 4 5 5 5 6 8 10 11 11 10 10 12 14 14 17 21 23 22 21 21 21 23 24 25
18 18 17 17 16 15 13 12 12 10 7 5 5 5 9 8 5 2 2 4 6 6 6 6 7 8 10 11 12 9 10 13 14 15 18 22 23 22 21 21 21 23 22 24

GFSNGP_925_spd_048.txt.gz
Wind_Speed
3 3 5 5 5 8 6 6 6 7 7 9 5 5 6 6 1 4 2 3 4 4 3 7 9 8 10 12 13 15 16 18 19 17 15 16 15 17 12 11 10 9 9 10
3 3 1 4 4 7 4 3 5 4 6 6 1 2 5 5 6 8 7 8 9 8 6 2 4 9 11 12 12 13 18 19 18 18 19 20 18 19 20 17 6 7 15 17
4 3 3 5 8 7 6 5 7 7 10 6 2 5 4 5 7 7 7 7 8 8 9 13 9 10 12 15 18 20 24 22 22 23 25 26 22 14 5 1 11 15 14 16
3 3 2 6 2 3 8 6 5 4 4 6 7 5 6 6 5 7 7 7 8 10 15 19 19 21 23 23 25 26 26 27 29 29 21 11 7 5 5 7 9 12 14 16
5 4 5 3 5 7 7 9 6 5 6 7 8 5 6 6 8 6 5 7 11 17 20 22 23 24 28 28 28 30 28 28 19 12 9 8 10 9 7 9 12 14 16 17
3 5 8 8 5 5 5 5 7 8 9 11 6 4 3 4 5 6 11 14 17 20 22 24 23 25 31 27 27 25 19 13 8 9 11 9 5 5 8 11 14 16 18 20
3 3 7 7 4 5 5 8 9 13 11 8 5 2 8 9 8 11 14 17 21 23 23 23 25 29 27 25 20 13 9 8 8 6 5 5 7 10 12 14 16 19 22 24
3 3 7 8 4 9 7 1 7 7 8 6 10 10 10 10 9 11 15 18 20 23 24 22 22 24 22 19 13 13 11 10 7 7 8 9 11 13 15 18 20 23 25 29
9 7 4 6 4 3 5 5 7 8 6 11 14 7 9 10 10 11 17 19 21 23 25 24 21 20 20 14 11 11 11 11 10 10 11 12 14 17 19 21 24 27 26 26
4 5 5 4 3 3 2 4 6 5 12 11 12 12 13 11 9 12 16 19 22 22 21 20 20 20 17 13 11 11 13 13 13 14 16 18 19 21 22 24 25 21 22 23
3 4 1 6 5 4 5 8 13 9 7 13 16 13 13 11 9 14 17 20 21 20 19 18 20 20 18 16 13 14 13 14 17 18 20 22 21 20 20 20 19 24 25 27
8 10 7 5 9 6 8 8 11 17 11 8 12 15 14 10 15 17 18 20 20 20 22 18 19 18 16 15 14 14 15 16 17 19 20 20 19 20 18 17 19 21 23 25
4 9 4 10 8 4 10 9 9 12 13 16 16 20 20 16 16 22 21 20 20 19 19 17 16 16 15 14 14 14 15 15 17 19 18 17 19 19 25 27 20 23 26 29
9 13 7 4 6 10 14 13 19 19 18 19 22 22 23 20 21 19 17 20 18 16 15 14 14 14 13 13 13 14 14 14 16 16 17 18 20 18 19 21 27 33 35 33
3 5 6 14 15 14 16 17 15 14 13 15 20 21 22 18 17 17 19 19 19 17 14 12 12 11 12 12 13 14 14 14 16 16 16 16 19 20 18 20 21 22 30 35
9 11 13 15 15 14 15 13 17 14 13 16 19 19 19 22 21 20 19 17 15 13 12 11 11 10 10 12 11 11 12 12 15 16 17 17 18 18 18 18 20 21 22 26
16 9 13 14 14 13 13 11 14 15 17 18 20 23 23 22 20 19 18 17 16 14 11 10 9 8 9 11 9 9 13 11 15 16 17 17 18 16 18 17 19 20 21 24
7 8 8 15 17 16 14 11 17 19 17 21 24 23 21 18 17 17 18 16 15 13 9 8 8 7 8 10 9 11 11 12 14 14 15 16 17 17 16 18 18 20 23 24
11 14 14 14 17 15 15 17 20 22 23 26 23 18 19 20 19 19 17 14 12 9 6 5 6 7 8 10 10 11 11 12 13 13 13 15 17 18 17 20 19 22 25 24
14 17 20 20 21 23 19 20 24 23 21 26 25 22 18 19 20 19 13 12 7 6 4 3 5 6 8 9 10 11 11 10 11 12 13 15 17 18 17 21 21 23 24 24
14 16 17 19 18 20 22 24 25 20 20 23 21 19 18 19 16 15 12 9 5 4 2 2 4 5 7 8 9 9 9 11 11 11 13 15 18 19 19 21 22 23 25 24
12 13 16 20 20 20 19 20 23 25 23 20 20 21 22 17 14 10 7 6 5 3 0 2 4 5 7 8 8 8 9 10 12 11 12 15 19 21 21 22 23 23 24 25
16 18 19 20 20 20 19 20 22 24 23 22 21 20 17 16 13 10 7 5 3 1 2 4 5 6 7 8 8 8 9 10 12 11 12 15 18 20 21 21 22 22 24 26
19 19 19 21 24 20 15 14 16 17 17 16 14 12 14 14 8 6 6 5 1 1 4 6 6 6 7 8 9 9 9 9 11 12 13 16 18 20 21 21 22 23 24 26
18 18 18 17 15 12 17 16 18 15 14 12 10 8 6 6 1 7 5 2 1 4 6 7 7 7 8 9 10 10 10 10 11 13 14 17 20 22 22 22 22 23 24 25
17 16 17 15 14 14 14 14 13 12 12 10 6 4 4 3 4 6 3 1 3 5 7 8 8 8 9 9 10 11 10 11 13 15 16 18 21 23 23 23 23 23 24 24
20 18 18 20 19 16 14 12 13 10 6 5 3 3 5 5 4 3 2 4 5 6 7 8 9 9 10 11 12 12 10 12 15 16 17 19 22 23 23 23 23 23 23 23

GFSNGP_925_spd_051.txt.gz
Wind_Speed
5 5 6 6 6 11 10 7 8 8 9 9 6 6 4 5 4 5 7 6 5 2 3 2 4 4 4 4 5 6 7 7 8 10 11 12 15 17 18 20 15 12 10 10
4 4 7 6 5 8 10 4 9 7 6 9 2 2 1 3 6 8 9 9 10 9 8 7 8 9 9 9 9 10 12 13 16 17 17 18 19 18 17 18 14 9 9 14
4 2 3 3 8 10 6 5 7 8 11 6 6 6 6 6 8 8 8 8 10 10 12 12 13 13 15 15 16 17 18 17 20 23 26 27 25 19 11 6 4 10 12 16
3 1 5 2 2 3 8 5 9 5 4 6 4 6 6 3 8 9 8 9 9 11 15 16 17 19 20 20 21 22 23 25 27 29 24 17 11 7 2 2 6 10 11 13
4 4 4 1 4 7 7 15 9 13 7 6 12 8 3 4 6 8 8 9 12 13 15 17 19 20 23 24 25 26 26 24 20 16 13 10 8 6 5 4 6 8 11 14
3 5 8 6 4 5 4 12 9 11 11 17 12 8 6 8 7 9 11 12 15 16 18 20 19 22 26 25 25 22 17 14 12 10 9 8 4 2 4 7 9 11 14 16
3 4 6 6 4 5 5 10 5 12 13 18 10 1 11 13 10 13 15 16 17 19 21 21 21 24 25 22 18 14 14 14 13 11 9 5 4 5 7 9 12 15 17 19
3 2 7 8 6 9 7 3 5 10 12 13 11 14 15 14 13 15 18 19 20 24 23 20 20 23 21 19 14 14 14 13 12 10 9 7 7 8 9 10 12 14 18 18
9 7 2 10 4 6 5 4 6 11 11 15 17 12 15 15 15 16 20 21 21 24 23 19 18 18 20 13 14 14 14 13 11 9 9 9 9 10 11 12 13 14 16 20
3 5 7 7 4 4 4 5 5 9 17 18 16 18 17 15 15 16 20 21 23 24 22 20 17 18 17 15 14 13 12 10 9 10 10 10 10 10 11 12 14 15 18 21
4 5 2 9 11 5 5 5 10 11 11 15 21 18 19 17 16 20 21 21 20 21 21 19 18 18 16 14 10 11 10 10 9 9 10 9 9 10 10 10 11 14 16 20
7 8 6 7 11 11 11 11 14 16 14 14 17 20 19 16 21 23 22 21 21 20 21 17 17 16 14 12 11 10 10 8 9 8 8 9 10 10 9 9 10 9 13 17
4 3 2 4 5 7 8 13 11 13 16 19 17 22 23 19 22 23 22 21 21 20 19 17 16 15 12 11 11 11 9 7 7 9 9 10 11 11 13 12 11 10 14 18
4 8 2 4 4 8 14 14 19 18 18 19 23 24 25 24 24 23 21 21 21 20 17 16 14 13 10 9 9 9 8 11 9 8 8 9 10 11 12 13 15 16 16 18
5 3 1 11 16 12 14 16 17 16 16 16 22 24 26 24 22 22 22 21 20 18 16 13 12 11 8 7 8 8 8 8 7 6 7 8 9 10 11 13 15 17 19 19
7 8 9 9 16 16 15 15 18 15 16 15 20 23 24 25 25 23 21 20 20 16 14 14 11 8 7 7 7 7 6 7 7 6 7 8 9 10 11 12 14 16 18 21
9 7 11 13 14 16 14 12 14 15 14 16 21 27 29 27 24 22 18 18 21 19 14 11 10 8 7 7 6 5 5 5 7 6 7 8 8 9 10 11 13 14 16 17
5 7 5 12 13 14 13 13 15 19 15 23 22 22 26 22 19 20 20 20 19 15 11 10 9 8 7 7 6 5 5 5 5 6 6 8 9 9 10 11 13 14 16 17
7 14 13 14 13 14 14 13 17 22 25 27 25 20 18 22 22 21 19 18 14 13 9 8 7 7 7 6 5 6 5 6 5 5 6 7 8 9 9 11 13 14 16 17
14 13 18 19 20 20 15 20 23 23 22 25 23 20 19 19 23 23 18 12 8 9 10 8 6 5 5 4 5 5 6 7 6 5 6 7 8 10 10 11 13 13 14 15
13 13 13 16 17 20 22 23 25 22 20 20 20 17 18 18 19 19 14 10 8 9 8 6 4 4 3 3 3 5 6 6 6 5 6 7 9 10 11 12 13 13 14 15
9 11 13 18 19 20 20 23 26 24 21 20 19 22 21 16 15 9 7 8 9 9 6 4 2 1 1 2 3 4 4 5 7 7 6 7 9 11 12 12 13 14 15 15
15 17 19 18 19 19 21 20 20 22 20 18 18 16 13 12 10 9 7 7 8 7 4 2 1 1 2 3 5 6 6 7 7 8 8 10 11 12 13 14 16 14 15 16
19 20 21 21 23 22 17 15 15 15 16 15 15 13 14 11 7 5 7 9 6 4 1 0 1 3 4 5 7 8 8 9 9 10 10 11 12 15 16 17 18 17 18 18
21 21 20 19 18 15 17 17 19 16 15 14 12 10 8 6 3 8 8 6 4 1 1 3 4 4 6 7 8 10 11 11 11 11 13 13 14 16 18 18 19 19 19 19
21 19 21 21 17 16 14 14 14 11 11 10 8 6 5 4 6 8 6 4 1 1 3 4 5 6 7 8 10 11 13 12 12 13 15 15 16 18 20 20 20 20 20 20
24 22 21 22 21 17 16 13 12 9 8 6 5 3 4 5 6 5 3 1 1 3 5 6 6 7 9 10 11 13 13 13 14 15 17 17 17 19 20 20 21 20 20 20

GFSNGP_925_spd_054.txt.gz
Wind_Speed
17 16 15 16 14 15 16 16 13 13 15 13 12 10 4 3 3 5 6 5 6 7 7 9 10 10 11 11 11 11 13 13 13 12 12 12 12 11 11 11 11 13 14 10
12 13 13 16 17 18 18 17 12 16 17 13 11 5 5 4 5 6 7 6 6 8 9 11 12 13 14 14 14 15 17 16 16 16 15 15 16 16 17 14 14 10 9 8
13 8 8 6 15 16 16 14 14 14 14 12 11 12 8 6 7 9 9 9 9 10 11 14 15 15 17 17 17 18 19 18 18 18 20 20 19 17 14 12 6 4 7 9
5 4 7 10 3 17 18 15 14 15 13 13 11 3 6 3 9 11 10 11 10 11 15 16 17 19 19 19 20 21 21 21 21 20 19 16 15 13 9 6 5 7 8 8
4 9 10 3 5 8 13 15 16 18 18 10 6 9 6 6 9 11 11 10 12 14 16 18 18 19 21 21 22 22 21 20 18 16 14 11 8 5 3 2 2 3 5 7
3 7 8 9 12 11 4 14 11 12 13 10 12 8 7 13 12 12 13 15 16 16 18 19 19 20 22 22 21 20 17 15 13 10 10 7 6 5 3 1 2 4 6 9
11 7 6 4 9 11 10 15 4 8 8 14 13 4 16 17 13 14 15 18 18 18 18 19 20 21 22 21 19 17 15 14 12 10 9 7 6 5 3 3 5 7 8 11
7 6 11 11 10 12 13 4 7 9 11 15 10 13 17 17 16 15 17 19 18 19 19 19 19 20 20 19 16 15 14 13 12 10 8 6 5 4 4 6 7 8 9 10
7 6 4 19 14 16 6 8 7 10 11 15 15 15 17 16 16 16 20 20 20 22 21 18 17 17 19 16 15 14 14 12 10 8 7 6 5 5 5 5 6 8 9 10
5 10 13 13 16 6 8 8 6 8 14 18 19 19 18 16 15 14 20 21 22 22 21 19 16 16 17 15 14 14 12 10 8 7 6 6 4 5 5 6 7 8 9 11
14 14 12 13 14 14 10 8 8 10 14 19 20 20 18 17 16 19 21 21 21 20 20 19 18 16 14 13 12 11 10 9 7 6 5 4 4 4 4 5 5 7 8 11
9 12 8 16 3 14 15 15 11 15 17 17 19 22 20 18 21 22 23 22 21 21 21 19 17 16 13 11 10 10 9 7 6 5 4 3 3 1 4 5 4 3 5 9
10 4 7 3 5 4 13 12 13 15 19 22 20 22 24 19 26 26 25 23 23 22 21 20 17 15 12 10 10 10 9 7 5 4 3 3 2 3 4 3 6 3 7 9
6 5 5 6 2 7 6 10 10 13 16 17 23 28 27 23 27 25 24 23 24 23 21 19 17 14 11 10 10 10 9 9 5 3 2 2 2 3 4 6 7 8 8 10
10 7 3 5 7 9 11 11 14 16 16 16 22 23 27 23 24 25 25 25 25 23 19 17 15 13 10 9 9 8 6 5 4 3 2 2 2 3 4 6 7 9 11 10
8 7 7 8 11 11 13 15 14 15 16 17 16 23 26 26 27 26 25 25 24 20 18 17 14 11 9 8 8 7 6 5 4 2 1 2 3 4 5 6 8 9 11 13
4 6 9 8 10 14 14 10 11 13 15 16 20 26 28 28 26 23 20 17 21 18 16 14 14 10 9 8 5 6 4 2 3 1 1 2 3 4 5 7 8 10 11 12
5 4 5 5 10 11 10 11 13 15 15 21 23 25 25 23 19 23 21 15 18 16 12 11 11 11 9 7 6 4 4 3 1 1 1 2 3 5 6 7 9 11 12 13
2 2 4 8 10 12 13 12 17 21 25 28 27 23 24 24 25 20 18 18 13 13 10 10 11 9 8 6 5 4 3 2 1 0 1 2 3 5 6 8 9 11 13 14
11 11 12 10 12 15 14 22 25 24 24 28 29 26 23 21 22 21 16 13 8 9 10 9 8 8 7 5 5 3 2 1 1 1 2 3 4 6 7 8 9 11 12 14
12 13 14 13 14 20 20 22 25 23 23 24 25 22 22 21 17 17 15 12 11 10 10 9 6 5 4 3 3 2 1 1 2 3 3 4 6 6 8 9 10 11 13 14
10 12 12 17 18 20 21 23 26 26 25 24 23 23 22 19 15 13 9 11 11 9 7 5 4 4 3 3 1 1 1 2 3 4 4 5 6 7 8 10 11 12 13 14
16 17 19 20 20 23 25 25 24 24 22 19 18 17 16 14 11 10 9 8 9 7 5 4 2 1 0 1 2 3 3 4 5 5 6 6 7 8 9 11 12 13 14 15
21 22 21 22 25 26 19 21 22 20 20 19 18 15 15 13 10 8 11 10 9 7 4 3 1 2 1 3 4 5 5 6 7 7 7 8 9 9 10 11 13 13 14 15
23 24 23 22 21 19 21 21 21 20 19 18 15 13 11 8 5 8 8 7 7 4 2 0 2 3 3 5 6 6 7 8 8 8 9 10 10 10 11 12 13 14 15 15
24 22 23 23 20 17 16 16 16 13 12 12 11 9 7 7 7 7 6 5 4 2 1 1 2 3 5 6 7 8 8 9 9 9 10 11 12 12 12 13 15 14 15 15
26 23 23 22 22 20 19 17 16 14 13 10 8 6 4 4 4 4 4 3 1 1 1 2 3 5 6 7 8 9 10 10 10 11 11 12 12 12 13 14 15 15 15 15

GFSNGP_925_spd_060.txt.gz
Wind_Speed
17 18 19 20 20 20 21 17 13 19 16 14 10 4 8 6 9 5 7 9 8 10 8 11 14 20 19 19 21 20 22 21 21 19 16 16 15 14 14 15 15 14 15 14
19 17 22 15 21 21 20 19 17 17 17 15 10 10 8 9 9 8 7 7 6 13 15 13 19 18 17 16 16 18 21 23 22 20 19 19 17 18 17 18 17 16 15 17
17 16 18 19 17 17 15 19 16 16 12 11 11 8 6 8 8 10 5 3 3 4 12 17 22 21 18 16 18 20 22 21 20 22 22 22 21 21 21 18 17 16 16 11
4 3 21 11 15 16 15 16 15 14 13 12 11 9 3 5 4 8 9 7 6 7 13 20 21 25 24 19 19 20 22 21 22 22 22 21 20 19 17 16 13 11 8 6
5 11 13 16 15 11 11 17 18 18 17 13 11 5 4 4 2 8 9 7 6 14 16 18 22 23 24 22 22 22 22 22 22 22 21 19 18 17 14 12 12 11 9 8
3 5 14 9 14 16 9 13 14 14 10 9 6 4 2 10 6 10 11 13 13 17 19 20 22 24 24 23 23 22 22 23 22 21 19 17 16 15 13 13 12 10 10 7
6 4 7 8 16 14 15 9 8 10 12 11 4 3 9 11 10 11 13 17 20 20 19 21 24 25 23 23 22 23 23 21 20 18 18 17 16 15 14 11 13 10 7 6
3 3 13 7 8 20 8 10 3 9 6 2 10 11 13 12 13 14 15 19 22 20 21 23 24 25 23 22 23 23 22 21 19 18 17 16 16 13 11 12 11 10 8 7
7 6 7 7 6 7 7 9 9 7 8 4 13 11 13 14 14 14 15 19 22 21 23 23 24 24 23 24 24 23 22 20 19 17 16 14 14 11 11 11 9 8 6 5
10 19 8 14 8 5 5 6 10 8 9 3 12 13 13 13 14 14 16 19 22 23 21 21 23 23 24 24 23 22 21 20 19 17 15 13 12 9 10 9 7 6 5 3
13 10 8 15 9 9 2 7 10 6 4 11 12 14 14 14 15 14 17 20 21 20 20 20 21 23 23 22 22 21 20 18 17 18 15 14 13 10 9 8 8 7 7 4
5 6 3 5 8 11 10 11 12 7 5 9 9 12 14 14 14 16 17 21 20 18 18 19 21 21 20 20 19 20 19 18 17 15 13 15 14 11 8 5 4 1 2 1
12 10 8 8 7 7 8 7 13 8 7 7 8 10 13 12 15 19 20 21 20 19 19 20 18 18 17 16 18 18 17 17 15 14 12 10 9 12 12 6 3 1 0 3
12 9 9 5 3 4 4 8 10 8 4 6 6 11 12 11 13 16 18 21 22 24 23 22 20 18 15 16 20 21 18 15 12 11 10 9 7 6 3 4 4 5 5 1
14 8 3 2 2 6 4 7 6 5 4 2 4 7 10 11 10 12 18 24 27 25 22 21 19 16 16 16 18 18 15 13 13 11 10 8 6 4 3 2 2 2 3 3
13 12 7 0 3 6 1 4 6 4 5 4 6 7 12 16 19 23 24 25 25 18 20 24 21 19 17 18 19 18 15 14 11 9 8 5 3 2 1 1 2 3 3 4
11 10 11 9 7 5 2 3 3 2 4 7 8 17 21 25 26 26 27 31 33 29 27 25 19 17 17 16 17 14 12 10 10 7 6 4 2 1 1 2 3 4 5 8
11 9 9 9 7 5 4 5 7 9 9 18 24 28 24 23 18 24 26 30 34 31 27 23 17 17 17 13 14 13 10 8 5 5 3 2 1 1 2 3 5 6 6 7
15 14 15 15 14 15 15 14 16 22 22 26 29 25 27 26 27 25 27 28 24 20 15 16 13 12 12 11 10 9 8 7 4 3 2 0 2 3 3 5 5 6 8 10
14 15 18 16 22 19 14 19 23 24 24 30 31 28 25 25 26 25 22 19 16 17 17 14 13 11 11 11 8 7 6 5 2 1 0 2 4 4 5 7 7 7 9 10
13 13 15 15 15 22 22 22 25 22 23 26 28 24 24 24 24 25 22 17 16 15 16 12 11 9 6 8 6 4 4 3 2 2 3 4 4 6 6 7 8 8 10 11
13 14 15 20 20 23 26 26 27 28 29 29 27 26 25 23 23 22 17 18 16 13 11 10 9 7 5 7 3 3 2 1 2 4 5 6 6 6 7 8 9 9 10 11
19 21 23 23 23 25 29 29 28 29 28 26 25 22 19 17 16 14 11 12 12 11 10 7 7 5 5 4 3 3 3 3 5 6 6 8 8 7 8 10 10 11 12 12
22 24 25 26 27 27 19 24 27 27 27 25 23 19 17 17 19 17 16 13 11 10 9 7 6 5 5 4 5 5 6 7 8 9 9 9 9 10 9 9 11 12 12 12
24 24 23 22 20 18 20 19 21 21 22 22 21 21 23 18 16 14 12 11 8 7 7 7 7 8 7 6 7 7 9 9 10 12 13 12 12 12 13 13 13 12 13 16
24 22 25 28 24 22 21 20 19 17 18 18 19 18 18 16 15 13 12 10 10 10 9 8 7 7 7 9 10 11 11 11 11 12 11 11 13 15 16 15 13 12 12 13
24 22 21 23 24 23 22 21 19 19 19 17 18 18 17 15 14 12 12 11 9 9 9 10 9 9 7 9 11 11 12 13 13 13 12 12 13 14 16 15 14 14 16 18

GFSNGP_925_spd_063.txt.gz
Wind_Speed
8 18 12 16 11 14 18 15 9 7 12 9 10 8 8 8 7 7 8 9 10 9 7 10 21 22 25 27 30 29 26 28 29 28 27 24 21 19 17 15 14 14 16 16
19 12 11 11 17 7 8 10 11 14 18 18 11 8 7 9 9 10 8 9 10 11 13 12 19 21 22 23 22 23 26 27 25 24 22 21 20 19 18 18 17 17 18 19
13 12 10 14 12 14 14 14 11 14 15 9 12 8 9 8 11 10 9 9 9 11 13 17 20 27 26 27 25 26 28 26 26 26 24 22 22 22 21 22 21 20 20 20
4 5 13 5 9 7 11 12 7 5 3 6 7 7 4 7 10 9 9 8 8 12 16 22 25 25 27 27 26 25 23 23 24 26 27 26 24 25 24 23 22 22 20 17
5 9 5 16 7 5 7 11 7 6 5 7 6 4 2 5 5 7 7 7 8 16 21 24 25 28 28 25 25 23 23 25 26 29 30 31 30 27 24 21 20 18 17 17
3 2 15 2 8 7 5 9 5 2 6 5 3 5 5 7 6 7 8 16 18 22 24 25 24 28 26 23 25 23 26 26 30 30 29 27 27 25 21 19 19 15 19 22
3 3 6 5 9 4 7 4 6 5 4 3 6 7 6 8 6 9 11 18 23 22 22 24 27 27 23 25 22 26 29 31 31 29 28 25 23 23 22 22 27 25 24 20
3 4 6 6 7 9 1 8 7 7 4 2 7 8 11 9 13 12 12 15 21 19 19 24 28 28 24 22 27 31 32 30 29 28 26 27 25 24 26 25 22 19 20 20
8 7 9 2 3 3 13 12 5 6 3 9 5 3 10 9 10 10 12 14 20 20 21 23 26 25 21 23 30 32 32 30 29 28 29 27 26 26 24 21 21 19 19 20
5 7 12 8 2 4 9 15 15 7 4 5 8 8 5 7 8 9 8 11 18 20 16 17 23 24 25 25 30 29 27 28 26 28 28 25 22 23 23 21 20 19 19 18
3 8 4 4 7 9 4 19 17 10 4 6 8 11 13 9 8 9 11 17 21 18 17 20 26 27 29 31 30 27 28 27 27 27 28 25 23 22 20 16 16 19 16 13
4 9 6 6 6 9 14 13 11 8 11 4 10 13 10 9 7 8 10 15 17 21 23 22 27 29 30 29 30 28 24 25 25 23 25 24 23 19 13 11 9 8 7 5
4 4 6 8 6 2 3 2 4 7 8 10 4 9 10 6 8 15 16 19 18 18 24 27 27 25 24 25 28 27 27 23 20 18 20 20 19 19 18 11 9 7 5 3
9 8 7 5 3 4 5 6 7 7 7 7 3 5 6 8 13 13 14 22 29 30 29 31 30 25 22 26 29 28 24 19 18 20 20 18 15 12 12 13 10 7 6 4
15 10 6 5 5 5 5 6 7 7 7 7 3 8 9 12 13 16 26 31 33 32 28 30 31 27 27 28 28 25 24 22 20 18 16 14 11 10 9 7 5 6 6 8
15 8 10 11 8 6 6 7 7 6 7 6 11 16 23 28 28 28 26 25 29 23 27 30 30 26 25 26 26 24 21 15 12 13 11 9 8 6 4 4 3 3 3 7
9 13 10 11 8 7 9 10 10 9 10 13 14 22 29 31 32 31 31 33 35 33 31 35 31 28 25 21 19 18 16 13 12 10 8 6 5 4 3 2 1 1 1 3
9 9 11 11 11 10 12 13 13 13 13 18 23 24 24 22 20 26 30 32 37 37 34 29 25 22 18 16 16 15 12 10 9 7 4 3 2 2 1 2 2 2 1 3
13 12 12 14 12 13 13 13 14 20 20 21 26 23 26 27 27 28 29 29 26 24 18 20 17 18 17 14 12 11 10 8 5 3 2 1 2 2 2 2 4 5 7 8
14 16 19 19 22 19 13 20 22 24 22 24 29 27 24 22 24 27 28 25 22 22 20 17 17 18 17 14 11 10 7 6 5 3 0 2 4 4 5 7 6 5 6 6
13 13 15 16 18 25 25 24 26 24 25 27 28 25 25 24 25 26 24 19 19 20 20 18 16 15 14 12 9 8 6 5 4 4 4 5 5 5 5 5 7 7 6 7
13 13 15 21 22 23 26 28 30 29 28 28 28 27 26 24 26 27 22 21 18 17 16 16 15 13 12 9 8 6 6 4 5 6 6 7 8 9 8 8 9 9 9 10
19 21 22 23 23 25 29 30 30 30 28 27 25 24 23 20 17 16 13 16 17 15 17 16 13 10 10 10 9 9 9 9 9 9 9 8 8 10 12 14 11 10 10 10
22 24 24 25 27 28 20 25 29 28 28 27 25 23 21 21 23 23 20 18 16 17 17 14 13 12 12 11 10 10 11 11 10 11 13 14 14 13 12 14 15 13 9 11
25 25 23 22 19 18 22 22 24 24 26 26 26 28 25 22 21 19 20 16 18 17 17 15 13 12 13 13 13 12 12 13 13 12 11 10 11 14 15 15 14 12 10 8
22 21 23 26 23 22 22 21 19 20 20 21 22 23 23 20 19 19 19 18 17 17 16 13 13 11 12 13 12 12 12 13 13 13 12 11 11 12 13 14 13 13 14 15
25 23 22 23 24 24 24 23 23 21 20 20 22 22 23 23 21 19 19 18 18 18 16 15 15 15 14 14 14 14 13 13 14 11 11 12 14 14 13 13 14 17 18 20

GFSNGP_925_spd_066.txt.gz
Wind_Speed
14 13 10 7 6 14 14 10 8 8 8 8 9 9 11 10 8 6 8 8 8 9 7 7 13 19 27 35 40 38 30 24 29 26 34 32 33 32 31 29 27 26 24 21
10 9 16 16 18 13 7 6 7 9 9 8 12 9 7 10 14 14 13 12 10 10 10 8 13 17 21 24 25 26 23 24 26 28 31 33 34 32 30 28 26 24 21 21
14 11 15 11 17 10 6 5 7 7 10 10 11 10 11 13 11 12 13 11 9 14 14 16 20 27 29 31 28 25 25 27 30 31 31 32 32 31 29 26 25 25 25 26
4 2 11 20 8 7 12 12 11 6 8 12 13 13 10 14 16 14 13 10 11 11 13 18 22 21 25 27 29 30 27 27 28 29 28 30 30 30 30 29 30 30 29 26
4 7 6 13 7 15 16 10 8 7 7 8 8 4 4 6 9 13 9 7 9 17 18 22 22 26 26 23 25 26 26 27 28 31 31 30 30 33 33 32 30 30 28 26
0 7 13 2 7 3 2 6 5 4 6 7 5 3 5 6 6 9 8 9 12 19 23 24 24 27 24 22 22 21 26 28 31 31 30 29 32 32 30 31 30 29 26 24
2 7 7 8 5 2 9 5 2 2 4 7 4 8 6 7 2 5 11 14 21 21 21 24 29 29 22 22 20 22 25 27 29 30 31 32 31 29 29 27 27 28 27 25
3 4 7 3 4 3 4 2 6 6 8 7 8 5 6 9 9 10 12 13 18 17 17 23 27 26 21 19 23 27 28 27 28 29 26 28 29 26 27 29 29 30 30 24
9 7 8 2 7 5 1 2 5 4 6 5 8 5 7 3 6 8 11 11 17 19 19 21 25 26 21 23 29 29 29 27 29 27 25 26 28 27 28 31 33 29 27 25
2 7 8 5 3 6 6 8 5 1 5 4 7 7 5 7 8 7 6 8 16 19 17 16 23 23 27 29 31 31 28 27 25 24 24 23 24 27 31 29 25 23 21 21
5 5 3 3 5 7 7 3 2 4 4 7 7 8 8 7 8 9 9 13 18 17 16 17 24 26 29 30 31 28 27 26 25 25 25 23 20 17 19 16 18 22 21 22
5 7 6 6 3 5 5 7 5 3 1 5 8 11 6 6 6 8 8 14 14 17 20 20 24 26 28 31 33 32 26 25 26 27 25 24 25 22 16 12 10 10 12 11
6 8 6 8 7 5 9 4 2 2 1 4 8 8 6 5 4 12 16 17 15 17 21 25 26 26 28 30 32 33 31 28 27 26 24 24 21 20 19 13 11 8 6 6
13 11 5 6 6 3 7 6 5 3 1 2 3 3 4 7 12 12 10 17 26 28 23 25 27 24 25 30 31 31 30 28 26 23 21 18 16 14 12 10 8 6 5 2
19 11 5 7 8 5 5 3 7 8 8 11 13 8 10 14 14 16 23 26 28 31 27 27 29 24 25 31 35 32 32 30 29 25 21 17 14 11 10 10 7 5 7 8
14 10 11 13 12 13 10 10 8 8 10 11 13 14 19 25 26 26 24 20 27 21 24 30 30 26 30 34 35 31 27 21 18 18 17 15 13 10 7 6 5 5 8 11
8 10 11 11 10 12 12 10 9 10 10 13 13 19 23 26 29 28 29 30 34 32 28 30 29 30 26 22 22 22 20 16 16 14 12 10 10 9 7 5 3 2 3 4
9 8 9 8 8 7 9 11 12 13 12 18 21 24 23 21 19 25 27 30 34 33 30 27 26 24 23 20 19 19 18 15 14 13 10 8 6 5 3 2 1 3 3 2
11 11 11 11 10 10 11 12 15 17 19 21 24 22 26 26 26 25 26 28 26 24 22 25 25 25 24 21 19 17 15 14 12 11 9 7 6 4 3 2 1 2 3 4
14 17 18 18 20 17 12 18 21 22 23 25 26 26 25 25 26 29 31 27 23 21 23 23 24 25 22 19 18 16 15 14 13 10 8 7 6 4 5 5 3 3 3 3
14 15 15 17 18 23 22 22 24 23 25 27 27 24 24 24 24 24 25 21 22 25 25 24 23 22 20 18 17 16 14 13 12 11 10 10 9 8 8 8 7 7 6 5
15 13 16 20 21 23 26 26 27 27 27 27 26 27 27 25 27 29 26 24 22 23 25 24 22 20 18 17 17 16 16 15 13 12 12 11 11 11 10 10 10 9 8 8
19 20 21 21 21 24 28 28 28 29 28 26 25 24 23 20 16 18 15 21 24 24 25 23 20 19 18 18 17 17 15 14 14 13 12 11 11 11 11 12 12 12 11 9
19 19 19 20 23 25 20 24 28 28 29 29 28 24 21 22 25 26 27 24 24 25 24 20 18 17 17 17 16 14 14 13 13 12 11 10 10 11 12 13 12 11 7 7
22 23 23 21 18 17 21 22 24 24 26 26 26 25 25 24 23 23 24 24 21 21 21 18 17 15 16 15 15 14 14 13 12 11 11 11 11 11 12 12 11 10 10 12
21 18 20 23 20 20 19 20 20 19 20 21 24 24 23 23 23 24 23 21 21 19 18 16 16 15 15 13 12 12 12 11 11 11 10 11 12 13 13 12 13 16 18 18
21 19 19 20 21 21 21 20 20 18 20 21 22 22 23 23 22 22 20 19 18 18 16 15 14 14 13 12 11 11 12 11 11 12 13 13 12 12 14 16 18 19 18 16

GFSNGP_925_spd_069.txt.gz
Wind_Speed
12 14 15 14 10 14 18 12 11 10 10 10 10 10 11 10 5 8 9 8 9 10 11 14 22 26 30 32 34 39 40 39 41 38 36 39 38 38 33 33 32 29 28 27
5 8 14 17 18 12 8 7 12 10 6 7 11 8 6 9 9 8 8 8 12 9 8 9 18 24 28 30 36 39 37 38 35 36 39 37 39 37 33 31 28 28 29 27
5 13 12 8 17 14 14 6 6 10 8 8 7 9 10 14 12 11 10 13 10 15 14 13 21 26 26 29 32 34 31 28 28 30 30 32 31 31 30 29 30 29 28 25
3 6 4 7 8 11 15 14 8 5 6 8 9 11 13 8 9 11 11 11 11 13 11 16 20 16 17 23 24 26 26 24 24 25 26 27 28 27 27 28 29 26 22 21
2 3 7 16 7 4 7 17 11 8 9 9 7 1 8 8 10 15 13 14 12 22 19 22 21 20 21 22 23 24 23 25 26 26 26 26 24 24 26 26 22 21 22 23
2 3 6 10 11 13 17 16 7 18 11 5 3 1 5 10 5 11 9 7 9 17 20 23 23 24 22 19 20 19 21 23 26 27 28 26 26 25 24 23 24 25 25 24
3 4 7 8 13 5 4 6 5 4 1 9 5 7 7 7 7 3 3 6 18 20 16 20 27 27 19 18 16 19 23 24 25 26 27 26 25 25 25 25 26 27 26 22
3 3 7 1 5 4 8 6 1 4 6 6 5 8 7 9 8 5 7 8 12 13 15 22 27 26 20 18 21 25 26 25 24 24 23 24 26 26 28 30 31 28 27 23
7 6 5 5 6 14 15 11 3 3 4 6 9 6 7 6 4 5 3 5 11 13 15 18 22 24 19 21 26 26 23 22 22 23 22 26 29 29 28 29 27 23 23 24
2 8 13 15 8 10 11 12 3 5 6 1 4 8 8 7 2 3 3 2 9 15 11 13 21 22 24 26 26 26 23 23 26 27 25 24 25 26 28 26 23 22 22 22
13 14 9 10 8 10 8 7 7 7 6 5 1 6 3 6 6 2 3 3 8 10 12 14 20 21 24 28 30 28 26 25 25 26 26 25 22 21 24 23 27 31 26 28
4 6 6 15 8 5 6 7 9 8 3 6 3 2 5 9 4 4 6 11 12 11 15 18 20 20 22 26 30 33 28 24 25 27 26 27 29 26 16 14 15 18 19 20
5 16 19 18 10 6 7 4 3 1 3 5 7 4 6 5 4 3 9 12 12 13 16 20 21 22 23 24 27 30 30 28 26 26 25 25 23 25 25 20 17 16 15 13
11 16 5 11 8 12 7 8 7 9 11 10 10 9 5 5 13 12 11 15 21 24 24 24 24 20 15 25 26 27 26 26 25 24 24 25 24 22 21 20 17 16 11 11
12 10 8 8 10 13 12 10 12 11 10 10 14 11 12 13 14 15 19 23 28 28 25 25 27 23 21 24 28 27 26 26 27 26 23 20 17 15 14 13 13 12 10 8
14 7 10 9 9 11 12 14 10 10 10 10 12 13 19 24 24 26 28 26 25 20 24 28 29 25 28 30 33 33 30 24 22 20 17 15 13 13 12 9 7 6 7 9
9 7 10 9 10 11 13 10 9 9 8 11 11 16 20 24 28 27 28 29 31 30 28 30 28 29 29 27 28 26 24 22 20 19 16 13 11 11 10 8 7 5 4 2
7 8 9 9 7 7 11 11 10 11 11 15 19 21 22 20 18 24 26 29 33 35 33 30 28 26 25 24 24 24 23 22 20 19 16 15 13 11 10 9 7 5 4 2
10 10 10 11 12 11 11 11 13 17 17 18 24 23 25 25 26 26 27 30 27 26 25 30 29 28 26 23 24 23 24 23 21 19 16 15 14 13 11 9 7 4 3 3
12 16 18 18 20 18 13 17 20 21 20 24 27 27 25 25 27 30 32 31 25 23 28 29 30 29 26 24 24 24 23 22 20 19 17 16 14 13 12 11 9 7 6 5
12 15 15 17 19 22 22 22 23 23 24 26 27 25 25 25 25 25 26 21 23 28 29 29 27 26 24 24 24 23 22 21 20 18 17 15 14 13 12 11 9 9 7 6
12 11 15 19 20 23 25 25 26 27 27 27 27 27 29 27 28 31 28 23 23 26 27 27 25 22 22 21 21 21 19 19 17 16 16 15 14 14 13 12 11 9 9 9
17 18 20 21 21 23 28 29 29 30 28 26 26 24 25 22 19 19 16 21 25 25 26 24 22 21 21 21 20 20 19 18 17 16 16 14 13 12 12 12 11 11 9 6
18 19 20 21 23 26 20 25 29 28 28 27 26 23 22 23 25 25 27 25 25 26 25 22 20 19 19 19 19 18 17 16 15 13 12 12 12 11 11 11 10 9 8 8
19 20 20 19 18 17 20 21 24 23 23 24 25 26 24 21 23 20 23 22 21 22 22 19 18 17 17 16 15 14 13 12 11 11 10 10 10 10 9 9 10 11 12 14
17 16 18 21 19 18 18 19 18 17 17 20 23 22 23 23 22 22 20 19 19 18 18 16 15 14 13 13 12 12 11 10 10 10 9 9 8 9 10 11 13 15 16 16
19 18 17 20 21 21 20 19 19 17 20 21 20 19 21 21 21 20 18 18 17 16 14 13 12 12 11 10 10 10 10 9 10 10 9 8 9 11 14 17 18 18 17 16

GFSNGP_925_spd_072.txt.gz
Wind_Speed
2 7 10 11 13 13 11 12 12 3 11 9 11 12 13 10 6 8 9 8 8 9 12 12 17 22 26 28 33 35 35 35 37 40 38 31 30 29 32 35 39 37 38 37
3 4 9 17 12 11 11 6 11 9 14 7 10 7 7 10 9 8 9 9 9 8 7 11 18 24 26 28 32 35 35 38 34 33 33 33 31 30 32 37 38 38 38 37
4 2 3 9 4 3 8 8 7 11 8 7 7 8 10 11 9 11 11 10 9 12 14 13 23 27 27 31 29 35 34 32 32 32 32 28 27 29 31 33 36 36 33 28
1 2 3 7 5 6 5 12 11 11 6 8 9 9 8 7 9 10 10 12 12 12 10 19 22 25 27 25 31 30 28 28 28 28 26 27 28 28 29 29 29 29 29 28
2 2 6 4 6 4 5 18 8 9 14 10 8 1 6 9 10 11 10 10 9 14 16 17 23 24 22 21 24 23 25 27 28 29 26 26 25 23 23 23 24 25 25 26
3 3 6 4 3 6 1 13 7 10 14 13 6 7 4 10 4 7 9 8 8 9 11 18 22 25 22 17 19 20 22 24 25 26 25 24 23 23 22 23 24 25 24 23
3 2 8 7 5 4 4 7 10 12 8 12 8 6 4 7 7 5 4 4 2 9 11 14 21 25 19 17 16 18 20 22 21 21 22 22 22 22 24 26 26 26 26 25
4 3 8 5 0 3 5 5 4 10 5 8 7 10 8 9 8 8 8 5 6 6 6 17 21 22 17 16 19 21 20 20 19 19 20 23 25 24 25 26 28 28 29 26
8 7 4 2 1 5 6 4 4 5 12 9 8 5 5 8 11 7 4 3 8 12 8 5 10 17 19 19 23 22 21 20 20 20 20 21 24 25 24 25 25 22 23 23
2 2 9 9 3 6 9 11 10 12 15 13 10 8 6 5 6 6 4 3 8 9 6 9 9 12 18 24 23 23 22 21 21 21 20 18 19 22 24 23 22 21 20 19
10 7 8 7 6 13 16 15 14 13 17 9 9 7 4 3 4 4 3 3 9 10 8 12 11 15 19 21 22 23 22 21 20 22 22 22 19 18 20 19 22 25 23 25
5 3 5 7 9 19 15 16 9 11 10 4 4 8 9 6 4 2 3 4 11 9 11 16 14 14 18 21 23 26 23 22 24 23 21 22 22 22 13 11 11 15 19 21
5 10 11 13 9 14 12 15 12 11 11 8 11 6 6 6 10 12 13 19 18 14 17 16 22 15 14 16 18 20 22 21 21 22 19 16 16 20 25 28 23 16 14 13
8 11 4 9 7 12 13 12 10 11 11 12 12 16 14 13 18 18 16 18 21 23 22 24 25 22 15 16 19 22 22 23 24 25 23 24 22 21 20 19 19 20 15 14
10 10 7 6 8 10 11 12 11 12 11 13 18 15 15 14 14 16 20 24 27 28 23 23 27 25 19 22 28 28 26 25 27 27 28 27 24 20 18 17 17 17 15 11
13 11 7 10 10 12 13 13 11 12 11 12 12 14 19 22 23 25 27 25 24 19 23 27 27 24 26 29 33 34 33 31 30 27 24 22 19 18 16 15 13 13 12 13
10 7 10 8 8 9 11 10 10 9 10 11 13 17 21 23 26 26 28 29 31 30 28 27 26 29 30 31 32 30 30 30 29 27 25 22 20 20 17 17 15 14 12 8
8 6 6 6 6 8 9 10 9 10 11 17 21 22 24 21 16 20 22 27 31 34 33 32 33 33 32 31 31 31 31 30 29 26 24 23 22 19 18 17 15 13 11 8
10 8 8 9 9 9 9 10 13 15 16 20 23 21 27 28 24 22 25 31 28 27 27 33 35 35 33 31 31 31 30 29 26 25 24 22 22 19 18 16 14 12 10 9
10 12 14 15 17 16 13 17 17 19 19 23 25 24 24 26 25 26 29 31 27 24 28 31 33 32 30 29 29 29 28 26 25 23 22 21 20 18 17 15 13 12 10 9
9 13 14 16 17 21 22 20 22 22 24 25 25 24 23 25 27 23 24 21 24 29 29 29 28 28 28 27 27 27 26 25 23 21 20 19 18 18 17 15 12 10 9 8
13 12 16 19 20 22 22 23 24 24 25 25 25 25 27 27 30 30 26 22 22 27 27 27 26 24 24 25 25 24 23 22 21 20 20 18 17 16 14 12 11 9 8 6
17 18 20 20 20 21 25 26 26 25 25 24 23 22 25 23 20 16 15 19 26 27 27 25 23 23 23 24 23 23 22 21 20 18 16 15 14 13 12 11 10 9 8 7
16 19 19 19 21 23 20 22 25 25 25 25 25 22 21 22 23 23 26 24 24 25 26 23 22 21 22 21 20 19 19 17 16 14 13 12 11 10 10 9 9 9 9 11
16 17 18 18 17 16 17 18 20 19 21 22 22 21 20 18 20 18 22 22 21 21 21 19 18 17 17 16 16 15 15 14 12 11 10 9 9 9 9 9 10 12 13 13
15 15 17 19 16 14 14 14 15 14 15 18 21 21 22 22 21 21 20 18 18 17 17 16 15 14 14 14 13 12 11 10 10 9 8 8 7 8 10 12 14 15 15 15
17 14 14 17 18 17 17 16 17 15 18 19 20 19 20 20 19 18 17 16 16 15 14 14 14 13 11 10 10 9 8 8 7 7 7 7 10 13 15 15 14 13 13 13

GFSNGP_925_spd_075.txt.gz
Wind_Speed
6 11 7 8 7 10 10 10 10 6 13 9 13 13 13 10 10 10 9 8 9 10 12 13 20 25 27 28 31 34 34 34 38 37 34 32 33 33 34 34 33 32 35 38
5 10 11 8 10 17 15 10 13 12 14 12 15 10 7 13 13 13 11 11 11 11 11 14 19 24 25 28 32 33 33 36 33 32 32 34 34 33 33 35 35 34 34 36
3 5 7 6 9 8 2 5 4 6 9 10 13 12 10 13 12 12 11 11 11 12 12 12 21 24 28 30 28 32 33 31 31 31 31 32 32 31 32 32 29 32 32 31
1 2 7 3 4 5 6 9 9 7 9 12 16 16 16 9 9 9 11 13 11 11 10 15 18 25 24 23 29 29 29 28 28 29 29 27 27 29 28 28 30 32 34 35
3 6 8 9 7 4 6 8 7 4 10 13 14 11 12 7 7 12 10 8 9 14 16 13 16 19 21 21 24 25 27 27 25 23 22 21 22 23 24 25 25 28 30 29
3 3 5 3 2 2 1 6 5 5 7 10 14 8 7 14 10 11 12 10 11 14 13 14 13 16 20 23 24 25 23 20 19 21 24 23 21 21 23 23 23 21 19 19
4 4 6 9 8 3 2 5 7 3 7 3 3 4 8 10 10 10 10 8 11 10 8 8 9 15 17 16 17 12 16 20 20 19 18 19 19 20 19 18 17 17 17 16
5 4 8 0 2 1 6 4 7 12 9 6 7 10 5 7 9 10 11 10 9 4 6 1 8 12 13 12 13 18 16 17 18 18 18 18 18 19 20 21 23 22 23 22
8 6 2 3 4 8 7 12 13 16 20 16 14 12 9 6 6 7 9 6 8 4 4 1 6 13 16 16 19 19 20 22 21 18 16 15 18 19 20 21 23 21 20 19
0 3 7 5 3 11 13 14 16 16 19 18 16 14 13 8 7 8 7 8 7 5 5 6 5 9 14 20 23 23 19 19 22 23 21 17 16 16 20 21 20 20 20 21
5 7 11 5 11 15 17 14 17 20 15 13 11 12 8 8 6 7 6 10 7 9 10 10 8 7 13 20 22 27 20 20 21 23 22 23 19 16 16 14 18 21 20 24
5 2 3 8 13 13 14 14 15 15 15 13 13 11 12 10 10 10 9 15 10 12 17 10 17 15 7 12 20 26 21 17 19 21 20 23 27 28 19 15 16 17 22 24
1 7 7 7 8 11 10 13 12 11 12 14 12 13 12 10 13 15 19 21 18 12 10 16 18 18 12 8 17 20 21 21 20 18 19 18 19 22 27 29 26 20 20 21
6 8 3 2 5 9 9 11 9 8 15 13 12 14 12 12 16 18 18 17 18 19 17 15 24 22 14 12 21 26 26 26 22 23 23 24 22 22 22 22 23 23 24 24
12 10 9 10 5 8 7 10 11 12 13 12 17 14 13 15 14 16 17 19 22 24 23 26 29 25 20 19 25 29 29 27 26 27 27 26 25 24 22 21 19 19 18 18
13 11 8 7 8 8 8 10 8 8 10 10 10 14 16 19 21 23 24 25 26 21 22 25 26 23 24 28 31 31 31 29 30 28 24 22 22 20 18 17 16 15 14 13
10 9 11 9 8 6 7 6 6 7 9 9 11 14 19 21 25 26 26 28 30 30 27 27 27 29 31 32 32 30 32 30 28 29 25 20 20 20 18 18 17 16 15 11
8 7 7 6 6 6 7 8 9 11 10 14 17 20 21 19 16 21 22 25 32 36 33 30 31 33 33 32 32 30 30 26 25 25 23 21 21 19 19 18 17 16 14 13
11 9 8 9 10 9 9 9 15 16 16 18 22 22 23 23 22 23 25 30 26 24 24 29 34 34 32 30 29 28 27 26 24 24 22 22 21 19 18 16 15 14 12 11
11 13 14 16 18 16 15 17 19 20 19 22 25 26 24 23 24 27 29 31 26 19 24 29 32 31 28 28 27 26 25 23 22 22 21 20 18 18 16 16 14 13 11 10
12 15 16 18 18 20 21 20 22 22 21 24 26 24 24 24 25 23 25 21 23 24 26 28 28 27 26 25 26 26 24 23 21 18 18 18 17 15 14 13 12 10 9 8
13 13 15 17 19 21 22 22 23 23 24 25 25 23 24 24 26 28 27 21 19 25 24 24 24 23 23 24 24 24 22 20 18 17 17 15 14 13 12 11 10 10 9 8
16 16 17 17 18 21 23 24 24 25 25 25 24 23 23 21 18 16 15 18 19 22 22 23 21 21 23 25 24 22 21 20 19 17 15 14 12 11 10 9 9 7 7 6
16 16 17 17 19 21 19 20 22 23 24 24 23 20 18 19 21 19 18 20 21 22 22 20 19 19 21 22 22 21 20 18 17 14 13 12 11 10 9 8 7 6 6 7
15 16 16 15 16 15 16 15 17 17 18 19 19 19 18 16 17 13 16 18 17 18 19 17 17 18 19 19 18 17 16 14 12 11 10 10 9 8 8 8 8 9 9 9
14 14 14 16 14 12 12 12 14 13 14 17 17 17 19 19 19 18 17 16 16 15 16 15 15 15 15 15 14 13 12 11 10 9 8 8 8 8 9 10 10 9 10 10
14 13 13 14 15 13 12 12 13 12 12 14 16 14 17 16 16 15 14 14 14 14 14 13 13 13 12 11 10 9 8 7 7 6 6 8 9 10 10 9 10 10 10 10

GFSNGP_925_spd_078.txt.gz
Wind_Speed
6 4 4 5 7 7 9 8 8 11 13 12 12 14 16 16 17 18 16 13 10 10 12 15 21 25 27 30 32 34 35 35 36 35 34 33 33 34 35 34 35 36 35 36
9 11 10 12 12 12 13 15 15 15 16 13 14 16 15 16 16 17 18 16 13 13 12 14 20 24 26 28 31 33 34 37 34 33 33 35 34 33 33 34 35 34 35 34
10 5 9 11 16 17 13 8 7 8 9 3 10 12 15 17 16 14 14 17 13 12 12 13 20 24 27 29 27 31 33 31 31 32 33 33 31 31 31 32 30 32 31 32
2 3 8 3 4 9 10 8 8 10 7 8 11 17 17 17 16 16 15 16 15 11 8 15 17 19 23 24 28 29 30 29 29 30 29 28 29 30 30 29 29 28 29 30
4 10 13 14 8 7 7 6 4 5 5 8 12 13 4 15 13 14 14 14 12 13 15 12 14 18 21 24 28 28 29 29 29 29 28 28 28 27 26 25 24 26 24 27
5 6 6 5 9 4 3 5 6 6 10 14 14 7 7 13 13 14 12 12 13 16 15 15 13 13 18 24 26 28 28 27 25 25 26 26 25 22 18 17 21 26 26 26
12 7 4 4 7 4 8 5 12 11 14 15 10 9 16 17 16 16 16 14 14 14 13 14 12 8 14 18 23 24 22 23 23 22 19 17 17 20 25 24 21 17 15 12
9 7 9 3 3 3 9 10 11 13 13 15 15 16 13 14 17 16 15 13 11 9 10 12 11 9 10 11 7 8 15 19 20 20 24 23 22 21 21 21 21 18 18 15
6 6 4 2 6 7 8 8 9 14 17 16 17 17 15 11 13 12 14 11 10 9 9 12 12 10 5 3 9 11 11 13 19 20 20 22 21 19 19 19 20 17 17 18
3 6 6 4 4 8 9 10 10 11 15 16 15 15 12 10 8 10 11 11 14 10 10 13 14 14 8 4 7 14 17 18 18 22 19 20 18 15 15 18 19 19 18 19
10 11 9 6 8 12 13 11 12 12 13 14 14 13 13 9 8 10 12 16 15 12 11 14 14 14 15 8 7 14 15 17 18 20 23 25 20 14 15 10 16 21 21 23
8 6 4 6 11 9 13 14 13 12 13 13 12 11 11 8 10 13 13 13 15 17 17 17 15 15 14 12 8 14 16 14 15 19 21 21 25 30 19 14 16 19 25 28
5 10 10 12 10 9 11 13 12 10 10 11 11 9 10 10 14 18 12 16 14 14 15 19 18 17 14 16 11 17 19 17 18 17 20 19 22 22 26 30 29 24 25 28
10 11 6 9 8 10 11 12 10 9 9 10 11 10 12 11 14 17 17 16 15 18 20 21 23 27 23 17 18 19 21 23 24 19 20 26 23 22 21 25 25 28 28 28
11 9 8 9 7 8 9 9 7 7 7 8 9 10 15 10 11 16 13 15 17 22 23 24 25 25 24 21 29 26 25 24 25 28 25 24 23 23 26 26 26 26 24 23
12 11 5 7 8 6 7 8 7 7 7 7 8 12 15 17 17 19 22 23 23 21 23 24 25 22 23 26 28 30 31 30 30 29 26 23 23 21 21 22 21 21 18 14
10 9 11 10 8 6 7 6 6 7 7 8 11 11 16 19 20 22 23 24 27 28 26 26 26 28 29 30 28 27 28 29 28 26 24 22 22 23 18 19 20 20 18 14
7 6 6 6 6 4 5 7 10 11 10 12 14 16 18 18 15 19 20 21 27 32 32 30 29 30 30 29 26 24 24 25 26 24 22 22 21 21 19 19 18 18 16 15
7 6 6 7 7 7 8 9 14 16 15 16 17 19 22 22 21 21 22 26 26 25 25 26 29 29 29 27 25 24 22 22 22 21 20 20 21 20 19 17 17 16 14 13
7 9 10 11 12 11 13 15 16 19 17 17 18 20 22 21 21 24 26 29 24 19 20 22 23 25 23 25 24 23 22 22 22 21 20 19 19 18 17 16 15 13 12 11
9 12 13 14 16 18 17 16 18 20 19 19 21 21 21 21 20 18 22 20 20 20 22 24 22 20 20 19 21 20 20 20 20 19 17 15 15 14 14 13 12 11 10 8
10 12 13 15 17 19 19 19 19 19 20 20 19 19 20 21 21 24 23 19 16 18 19 20 20 20 19 19 19 19 18 18 17 15 15 14 13 13 12 11 10 9 8 7
13 14 16 16 17 19 20 20 20 20 21 21 20 20 20 18 16 14 15 16 16 17 18 18 18 19 19 18 18 18 18 17 16 15 13 12 12 11 10 9 8 7 7 7
14 15 15 14 15 17 18 17 19 19 20 20 18 16 14 15 17 16 15 15 17 17 17 16 17 19 17 17 16 16 15 14 12 11 10 10 9 9 8 7 7 7 6 6
12 13 12 12 13 13 13 13 15 15 17 17 17 17 16 15 14 12 12 13 13 13 14 16 17 16 15 14 13 13 11 10 9 9 9 8 8 7 7 6 5 5 5 5
10 11 12 13 11 10 9 10 12 11 12 13 14 13 13 13 12 12 12 12 12 12 12 12 12 12 12 11 11 10 9 8 8 8 7 6 6 6 6 5 5 5 5 5
10 8 10 11 11 10 10 9 10 10 10 10 12 10 11 11 11 11 10 10 10 10 9 9 10 10 9 8 8 7 6 5 5 4 4 5 5 5 5 5 6 6 6 6

GFSNGP_925_spd_081.txt.gz
Wind_Speed
11 8 5 5 5 8 12 12 10 12 10 10 9 10 12 12 13 13 13 14 13 7 9 13 19 25 28 29 30 31 32 34 35 34 34 34 34 36 36 38 39 39 37 38
11 11 11 12 11 12 13 12 14 14 16 16 17 11 12 15 15 16 15 14 13 15 13 12 15 22 25 28 30 31 32 34 33 32 33 34 34 35 35 37 38 37 39 39
11 9 8 10 14 15 14 14 15 15 7 1 4 7 10 13 15 17 15 14 13 13 15 11 14 20 23 28 27 30 32 33 34 33 34 35 35 35 36 36 35 38 37 37
7 3 10 9 4 6 9 14 6 8 5 5 6 8 12 10 13 15 15 15 15 13 12 14 12 17 20 24 27 29 31 32 33 33 34 33 34 36 36 35 36 36 36 35
7 10 13 18 6 6 9 11 5 4 5 9 11 11 1 10 10 12 13 12 13 18 15 16 18 15 16 19 24 28 30 31 33 33 33 33 33 34 33 32 32 34 31 31
6 11 11 13 5 5 4 8 9 4 6 8 10 7 4 13 13 14 16 15 14 20 17 13 14 16 14 17 21 25 27 28 29 29 31 31 31 30 29 28 27 25 25 24
12 8 6 7 7 3 10 2 6 7 9 10 10 11 15 17 15 14 12 15 17 20 18 18 18 18 14 15 15 21 21 23 25 25 26 28 27 25 25 21 20 17 15 11
8 5 14 8 6 7 7 4 8 9 11 11 13 14 14 15 15 13 14 13 16 14 17 20 21 19 16 11 12 12 9 17 19 21 20 20 18 16 21 25 25 20 17 13
11 8 5 8 8 3 7 7 9 11 12 13 13 14 15 15 14 12 13 14 18 17 18 20 22 20 16 18 16 9 7 9 9 11 10 8 11 12 14 17 20 22 23 18
3 8 7 8 1 10 9 8 10 11 12 12 13 13 14 12 13 13 14 15 17 19 19 21 24 21 19 19 13 12 12 11 10 13 15 14 13 12 10 9 16 13 22 23
9 12 8 11 11 10 10 11 11 12 11 12 12 13 14 11 12 12 14 18 17 15 16 19 22 22 22 19 13 14 16 17 18 18 20 25 24 17 13 8 9 16 17 22
2 11 8 10 14 12 11 13 14 13 13 14 14 13 13 10 12 13 14 18 16 17 19 18 19 20 25 18 11 15 20 20 18 18 21 20 23 32 26 21 16 17 23 25
5 10 9 11 13 12 11 12 13 12 12 13 14 12 11 10 13 13 15 17 18 18 21 19 20 26 29 23 13 15 25 22 22 18 15 19 22 25 26 36 38 32 33 33
10 11 6 10 6 8 9 9 9 8 10 11 13 14 12 11 12 13 14 16 18 19 21 19 22 25 25 23 24 22 23 26 23 23 18 20 24 23 24 26 26 28 32 31
11 9 5 7 9 9 8 9 8 8 8 8 12 13 14 11 11 13 14 15 18 20 21 22 24 26 25 27 29 29 29 28 26 27 27 27 28 28 27 25 27 26 27 28
11 9 8 9 8 10 10 10 8 7 7 7 10 13 13 14 15 17 19 19 22 19 21 23 26 26 25 25 27 29 30 31 29 26 26 26 25 24 23 25 22 21 19 18
10 9 10 9 9 8 7 7 7 7 6 8 10 12 14 15 16 17 17 19 24 26 26 26 26 28 29 29 28 26 26 29 27 26 26 23 22 23 23 22 22 22 23 24
8 7 7 8 7 6 5 6 8 9 9 11 13 17 17 17 13 14 14 15 24 29 30 28 29 30 30 28 28 27 27 26 25 25 23 23 22 22 22 21 20 20 19 20
10 8 9 9 8 7 7 8 10 11 12 14 16 17 18 19 19 18 17 21 24 24 25 23 25 26 26 24 21 22 23 22 21 21 21 22 23 21 20 19 18 17 15 15
11 12 12 12 13 11 11 12 13 14 14 15 16 18 19 17 16 18 20 25 23 20 20 21 21 22 21 21 20 20 21 21 21 21 19 19 19 18 18 17 15 14 14 13
10 12 14 14 15 16 15 14 15 17 16 17 18 19 19 21 26 17 18 19 21 19 20 23 23 20 19 18 19 19 19 19 19 18 16 16 16 16 14 13 13 12 12 11
12 13 13 14 16 18 18 18 18 18 17 17 16 15 15 17 18 21 21 18 16 17 18 20 20 20 19 19 19 19 18 18 17 16 16 15 14 13 13 12 11 11 10 9
13 14 15 15 16 18 18 19 19 19 19 18 17 18 19 18 16 13 14 17 16 16 17 19 18 18 18 18 18 18 18 17 16 15 14 13 12 11 11 10 10 9 8 8
13 14 14 14 14 16 16 16 16 16 17 16 17 17 12 12 15 14 13 13 15 16 17 17 17 18 17 16 15 15 15 14 13 12 12 11 10 9 9 8 7 7 6 6
12 11 11 11 12 12 12 11 12 12 13 14 14 15 15 14 12 10 10 11 11 11 12 15 16 16 15 14 14 14 13 12 11 10 10 9 9 8 7 7 6 6 5 5
9 10 11 11 10 8 8 7 9 8 8 10 11 11 11 10 9 9 10 10 10 10 11 12 12 11 12 11 11 10 9 8 8 8 7 6 6 6 6 6 6 6 5 5
9 7 8 9 9 8 8 7 7 7 7 7 8 7 8 8 8 8 8 7 8 8 8 8 9 9 9 8 8 7 7 6 7 6 6 6 6 6 6 6 6 5 5 6

GFSNGP_925_spd_084.txt.gz
Wind_Speed
12 4 11 3 6 16 17 19 11 8 14 8 11 12 10 7 8 8 9 9 9 11 9 6 14 19 23 25 28 30 30 29 32 33 34 33 34 38 38 37 38 39 39 41
13 12 9 12 15 17 15 19 12 9 13 15 18 15 4 5 8 9 12 16 17 16 16 15 15 18 22 24 26 30 30 32 29 30 33 36 35 35 37 39 39 39 39 39
10 11 12 8 9 11 9 8 7 10 10 7 1 5 9 9 14 12 12 12 11 10 10 11 17 26 12 23 25 27 31 30 30 31 33 35 35 35 37 38 37 40 41 41
7 8 4 6 11 3 6 12 13 12 7 7 3 3 11 14 12 11 12 12 11 11 13 17 22 23 26 19 22 26 27 28 30 31 33 31 33 37 37 37 38 37 38 39
4 6 12 18 6 3 6 7 7 9 11 5 5 4 11 13 10 9 7 7 8 14 18 26 27 29 28 28 24 18 24 27 28 29 29 29 31 35 35 33 33 36 36 36
5 7 5 5 16 6 9 5 6 11 1 8 6 5 9 13 12 12 11 8 7 12 21 23 25 26 22 18 21 21 25 19 27 28 29 30 33 29 30 31 32 30 31 33
9 7 5 9 5 6 6 4 8 10 12 12 9 9 12 12 11 11 8 14 22 19 22 20 23 24 22 25 26 30 29 29 22 30 28 30 29 31 29 30 30 30 29 22
8 5 11 3 5 6 8 9 6 10 10 11 10 11 12 14 14 17 17 20 26 22 20 20 21 21 20 21 24 25 23 24 25 19 8 11 22 16 16 18 17 16 17 14
8 7 5 9 13 10 8 10 11 11 11 11 10 11 13 12 15 15 16 20 24 20 18 19 21 20 19 24 21 18 22 24 23 19 17 15 11 10 16 18 21 16 14 14
5 4 12 8 13 11 13 13 14 12 12 11 10 11 12 12 13 13 18 19 20 20 19 19 21 20 19 24 20 15 21 23 24 26 24 20 18 15 9 8 12 14 21 18
9 10 11 13 7 7 14 12 12 11 12 13 12 13 13 12 13 13 17 19 19 18 17 18 19 20 22 21 19 12 17 21 23 23 24 26 37 30 22 15 6 19 21 18
4 8 8 7 11 13 12 11 11 11 11 12 13 12 12 11 13 15 16 18 17 17 18 19 20 22 25 22 17 13 13 18 20 23 21 26 26 34 41 34 27 22 27 34
4 10 8 10 13 12 10 10 10 10 10 10 12 13 13 10 15 15 16 17 18 17 16 16 18 22 26 23 20 21 18 18 18 21 21 18 24 26 29 37 41 41 32 42
11 11 8 13 6 10 11 11 10 12 14 15 15 15 14 13 15 16 16 16 15 16 17 18 19 24 25 23 23 24 26 28 24 23 24 22 24 25 26 26 23 31 30 38
13 10 9 9 10 11 12 12 9 10 9 9 13 13 13 13 14 16 17 16 17 20 21 22 23 24 24 25 27 25 24 23 25 26 26 26 31 22 29 26 23 24 25 28
11 9 12 11 11 11 10 10 9 9 8 9 10 12 13 15 16 18 21 22 23 21 24 25 25 24 25 24 26 27 29 28 24 22 23 22 23 22 24 22 19 18 18 23
10 11 11 10 10 11 9 9 9 8 9 10 12 11 13 15 17 19 21 23 25 27 28 28 26 26 26 28 27 25 25 26 27 27 24 24 24 24 24 24 25 25 26 27
10 10 10 9 9 8 9 10 11 12 11 14 14 16 17 16 15 17 19 20 23 29 31 29 29 28 28 27 26 25 25 25 25 25 24 24 23 23 23 23 23 22 23 26
14 11 12 14 11 11 11 11 13 14 15 16 17 18 19 19 20 20 21 25 24 23 27 25 26 29 29 27 25 26 25 24 24 25 24 25 25 24 23 24 22 22 21 20
13 15 15 14 17 16 15 16 17 18 17 18 19 19 20 19 16 19 23 25 23 20 23 25 23 24 23 24 24 24 23 23 23 23 21 21 20 20 21 20 18 19 18 18
11 14 15 15 16 17 17 16 17 18 17 17 17 17 18 21 25 18 17 17 21 19 20 23 24 20 21 21 22 22 22 21 20 19 19 19 20 19 19 18 19 18 17 16
12 12 12 13 15 17 17 18 19 19 18 20 21 18 15 14 17 21 23 16 16 17 19 20 21 21 19 20 20 21 21 20 20 19 19 18 18 16 16 16 16 15 13 12
12 13 14 13 15 16 17 17 17 17 18 17 15 15 17 16 15 13 12 15 14 16 17 20 19 18 18 19 18 19 19 19 18 17 16 16 15 13 13 13 12 10 8 10
11 12 13 12 12 13 15 13 14 15 17 16 17 18 13 12 14 12 11 10 13 17 19 18 16 16 17 17 16 16 17 16 15 14 13 12 12 11 9 9 9 9 7 7
10 10 10 10 11 10 10 10 10 10 12 12 12 13 13 13 11 9 10 10 12 11 12 13 14 15 16 15 15 14 14 14 13 11 10 9 9 8 8 8 7 6 6 5
8 9 9 10 8 7 6 6 8 7 7 9 10 9 9 9 9 8 9 9 10 10 11 13 14 13 13 12 12 11 9 8 9 9 8 7 7 7 6 6 5 5 5 4
7 6 7 7 7 8 8 9 8 8 7 7 8 7 7 7 7 8 8 8 9 9 9 9 10 11 10 10 9 8 8 8 10 8 7 7 7 7 6 5 5 4 5 5

GFSNGP_925_spd_087.txt.gz
Wind_Speed
11 8 7 2 11 3 12 10 6 0 10 9 11 10 16 14 14 15 15 15 13 11 7 8 15 7 20 29 34 37 34 34 37 38 38 38 39 36 36 37 40 40 40 42
8 11 7 11 14 3 1 4 11 12 12 7 15 9 5 10 13 12 12 12 13 13 14 11 14 17 20 16 29 35 34 34 33 36 38 39 39 38 39 39 38 39 42 42
3 9 13 5 10 13 11 16 11 10 11 1 2 17 9 7 11 10 9 9 9 11 12 15 19 21 20 21 10 29 32 32 33 32 37 38 36 37 40 40 38 38 38 40
4 6 3 4 6 4 2 10 5 12 10 9 13 10 9 7 8 8 6 6 7 9 12 21 23 26 23 22 18 23 15 24 31 33 32 30 34 37 35 35 38 39 38 39
2 3 6 14 4 3 2 7 11 12 9 11 8 11 9 8 8 6 10 10 14 20 21 25 29 29 24 24 24 25 23 23 20 18 29 29 32 37 38 35 32 36 37 37
2 4 5 5 2 7 1 5 7 11 11 11 12 7 6 14 18 20 19 24 21 21 25 28 30 28 25 24 22 22 22 20 23 26 15 28 34 33 33 35 38 34 33 35
7 3 6 5 7 5 4 4 7 11 11 12 10 6 7 13 17 17 20 24 22 24 23 23 27 25 22 22 24 25 21 18 19 24 20 17 13 26 30 30 28 29 28 26
4 3 6 10 5 4 5 10 12 13 12 12 12 12 11 14 16 18 18 24 26 21 22 25 26 23 19 21 24 23 19 18 21 23 24 22 22 17 5 21 30 26 23 14
6 5 8 11 12 13 12 14 13 14 13 11 11 11 12 13 16 16 19 21 23 21 20 21 23 22 20 23 22 20 19 18 19 20 25 27 27 28 24 15 5 6 8 10
3 10 12 14 15 12 14 13 14 14 13 12 11 11 12 13 13 13 18 19 20 19 18 19 22 21 21 22 20 17 17 20 20 22 28 30 30 29 29 24 16 16 17 18
4 11 15 13 10 9 14 14 13 13 15 13 11 11 10 11 11 11 14 15 15 16 16 18 21 22 24 23 18 13 16 16 17 19 22 27 37 31 27 26 17 16 18 24
3 7 9 9 11 12 12 13 13 13 13 13 13 11 10 10 12 13 15 16 17 18 17 19 20 22 25 23 15 12 15 16 17 18 20 22 25 37 45 38 40 36 35 37
3 5 13 13 10 8 8 8 12 13 12 11 13 12 14 10 14 13 15 16 17 16 16 18 19 22 24 21 18 17 17 17 19 18 20 21 23 23 27 36 42 44 39 34
14 5 11 9 7 11 12 10 17 15 15 14 13 13 14 14 14 14 15 14 15 16 17 19 20 24 24 21 21 20 20 22 22 21 22 23 23 22 22 21 23 29 35 34
11 12 10 11 10 10 14 11 12 10 9 11 13 14 13 14 15 15 14 14 15 20 21 22 23 26 25 25 27 23 19 20 22 24 24 24 24 24 22 21 21 23 25 31
11 13 11 11 10 10 10 10 10 9 9 10 13 14 15 17 18 19 21 21 21 20 22 23 26 26 26 25 25 25 26 26 24 24 24 24 24 24 23 22 23 21 22 21
11 12 11 10 9 11 12 10 10 9 12 12 14 12 14 18 19 19 21 22 24 24 25 27 24 26 25 26 27 26 25 26 24 25 24 24 24 23 22 23 24 24 25 27
11 11 12 9 9 10 11 12 14 15 14 15 17 19 20 18 15 17 18 20 23 29 29 28 27 28 28 25 26 26 27 26 24 24 24 25 24 24 23 23 22 22 23 25
14 11 13 15 14 13 13 14 16 16 16 16 17 17 19 19 18 18 18 20 21 21 25 24 25 26 27 24 25 26 27 25 23 23 23 24 23 22 22 21 21 21 22 22
13 14 14 15 16 15 15 15 17 17 16 18 18 18 18 15 16 17 19 21 20 18 20 20 21 22 23 21 22 24 24 22 21 22 22 23 22 21 23 23 23 23 22 21
9 12 13 14 15 18 18 17 17 16 17 19 18 16 17 19 20 14 15 15 18 15 18 22 22 19 19 19 21 22 23 22 22 21 21 22 24 23 23 23 22 21 20 20
11 11 14 15 14 16 18 19 19 18 18 18 17 14 12 14 17 19 19 15 14 15 19 22 21 18 19 21 21 21 22 22 22 21 21 21 22 22 19 18 19 19 16 14
12 12 13 14 14 15 17 17 17 17 18 15 13 15 15 14 12 10 11 14 15 16 19 19 18 17 18 20 20 20 21 21 21 20 19 17 16 16 17 16 14 12 13 10
12 12 13 13 12 11 10 12 14 15 15 15 15 15 10 12 13 12 10 10 14 15 17 17 16 16 18 19 16 17 17 19 17 15 15 14 13 11 9 9 10 8 7 6
10 10 12 12 10 8 11 12 12 11 12 12 12 12 13 11 11 11 11 12 11 14 13 13 15 15 15 14 13 13 13 13 13 12 12 11 8 7 8 9 9 5 4 4
9 8 9 10 8 5 7 8 8 9 11 11 11 9 10 10 9 11 10 10 10 10 12 14 10 11 12 12 12 10 11 11 8 9 7 7 7 6 4 3 3 3 4 5
7 6 8 8 7 10 12 13 12 12 12 12 11 7 9 10 9 9 8 8 9 9 8 8 10 10 9 8 9 9 11 10 9 7 6 5 5 6 7 5 3 2 3 4